GW3906 Weather Reports


time (UTC)temp
C
wind
direction
speed
KPH
gust
KPH
rain 1hr
cm
rain 24hr
cm
rain mn
cm
humidity
%
barometer
mb
20260906174104 25 141 11.3 20.9 0.00 0.00 0.00 72 1019.2
20260906174004 25 139 9.7 20.9 0.00 0.00 0.00 73 1019.2
20260906173905 25 141 9.7 20.9 0.00 0.00 0.00 73 1019.2
20260906173804 25 144 9.7 20.9 0.00 0.00 0.00 72 1019.3
20260906173704 25 141 9.7 20.9 0.00 0.00 0.00 72 1019.3
20260906173604 25 141 9.7 20.9 0.00 0.00 0.00 72 1019.3
20260906173518 25 145 9.7 20.9 0.00 0.00 0.00 72 1019.4
20260906173404 25 145 11.3 20.9 0.00 0.00 0.00 72 1019.4
20260906173304 25 155 11.3 20.9 0.00 0.00 0.00 72 1019.5
20260906173218 25 160 11.3 20.9 0.00 0.00 0.00 73 1019.5
20260906173104 25 170 9.7 20.9 0.00 0.00 0.00 74 1019.5
20260906173004 25 178 9.7 17.7 0.00 0.00 0.00 73 1019.5
20260906172904 25 185 9.7 17.7 0.00 0.00 0.00 74 1019.5
20260906172804 25 182 9.7 17.7 0.00 0.00 0.00 74 1019.5
20260906172704 25 182 9.7 17.7 0.00 0.00 0.00 74 1019.5
20260906172604 25 187 9.7 17.7 0.00 0.00 0.00 73 1019.5
20260906172504 25 181 9.7 17.7 0.00 0.00 0.00 73 1019.5
20260906172404 25 179 11.3 17.7 0.00 0.00 0.00 74 1019.5
20260906172306 25 168 9.7 17.7 0.00 0.00 0.00 73 1019.5
20260906172204 25 165 9.7 17.7 0.00 0.00 0.00 73 1019.4
20260906172104 25 162 11.3 17.7 0.00 0.00 0.00 74 1019.4
20260906172004 25 155 11.3 17.7 0.00 0.00 0.00 74 1019.4
20260906171904 25 154 11.3 17.7 0.00 0.00 0.00 74 1019.4
20260906171804 25 155 12.9 17.7 0.00 0.00 0.00 74 1019.4
20260906171704 25 153 12.9 17.7 0.00 0.00 0.00 74 1019.4
20260906171604 24 147 12.9 17.7 0.00 0.00 0.00 75 1019.5
20260906171518 24 153 12.9 17.7 0.00 0.00 0.00 75 1019.5
20260906171404 24 154 12.9 17.7 0.00 0.00 0.00 74 1019.5
20260906171318 24 162 11.3 17.7 0.00 0.00 0.00 75 1019.6
20260906171204 24 162 11.3 17.7 0.00 0.00 0.00 74 1019.7
20260906171118 24 160 11.3 17.7 0.00 0.00 0.00 74 1019.8
20260906171019 24 167 9.7 17.7 0.00 0.00 0.00 75 1019.8
20260906170918 24 167 9.7 17.7 0.00 0.00 0.00 75 1019.8
20260906170804 24 171 9.7 16.1 0.00 0.00 0.00 75 1019.7
20260906170704 24 178 8.0 16.1 0.00 0.00 0.00 75 1019.7
20260906170605 24 180 9.7 24.1 0.00 0.00 0.00 75 1019.7
20260906170505 24 175 9.7 24.1 0.00 0.00 0.00 76 1019.6
20260906170404 24 166 9.7 24.1 0.00 0.00 0.00 76 1019.6
20260906170304 24 166 9.7 24.1 0.00 0.00 0.00 76 1019.6
20260906170218 24 171 9.7 24.1 0.00 0.00 0.00 76 1019.6
20260906170118 24 172 9.7 24.1 0.00 0.00 0.00 76 1019.6
20260906170018 24 164 9.7 24.1 0.00 0.00 0.00 76 1019.6
20260906165918 24 156 9.7 24.1 0.00 0.00 0.00 76 1019.7
20260906165804 24 151 11.3 24.1 0.00 0.00 0.00 76 1019.7
20260906165704 24 148 11.3 24.1 0.00 0.00 0.00 75 1019.8
20260906165618 24 150 11.3 24.1 0.00 0.00 0.00 75 1019.7
20260906165518 24 145 11.3 19.3 0.00 0.00 0.00 76 1019.8
20260906165405 24 146 11.3 19.3 0.00 0.00 0.00 77 1019.8
20260906165318 24 140 9.7 19.3 0.00 0.00 0.00 77 1019.8
20260906165204 24 132 11.3 19.3 0.00 0.00 0.00 77 1019.8
20260906165104 24 135 11.3 19.3 0.00 0.00 0.00 76 1019.8
20260906165004 24 140 11.3 19.3 0.00 0.00 0.00 76 1019.8
20260906164904 24 142 9.7 19.3 0.00 0.00 0.00 76 1019.8
20260906164804 24 142 9.7 19.3 0.00 0.00 0.00 76 1019.7
20260906164718 24 143 8.0 17.7 0.00 0.00 0.00 76 1019.7
20260906164604 24 139 6.4 16.1 0.00 0.00 0.00 77 1019.7
20260906164504 24 147 6.4 16.1 0.00 0.00 0.00 77 1019.7
20260906164404 24 153 6.4 16.1 0.00 0.00 0.00 77 1019.7
20260906164318 24 154 8.0 16.1 0.00 0.00 0.00 76 1019.7
20260906164204 24 160 8.0 16.1 0.00 0.00 0.00 77 1019.8
20260906164104 23 163 8.0 16.1 0.00 0.00 0.00 78 1019.8
20260906164019 23 167 8.0 16.1 0.00 0.00 0.00 78 1019.8
20260906163904 23 169 8.0 16.1 0.00 0.00 0.00 78 1019.9
20260906163818 23 174 9.7 17.7 0.00 0.00 0.00 78 1019.9
20260906163704 23 179 8.0 17.7 0.00 0.00 0.00 78 1020.0
20260906163604 23 180 8.0 17.7 0.00 0.00 0.00 78 1020.0
20260906163504 23 178 9.7 17.7 0.00 0.00 0.00 78 1020.0
20260906163404 23 169 9.7 17.7 0.00 0.00 0.00 77 1020.0
20260906163304 23 168 9.7 17.7 0.00 0.00 0.00 77 1020.0
20260906163204 23 162 9.7 17.7 0.00 0.00 0.00 77 1020.1
20260906163118 23 158 9.7 17.7 0.00 0.00 0.00 77 1020.2
20260906163004 23 151 9.7 17.7 0.00 0.00 0.00 77 1020.2
20260906162904 23 150 9.7 17.7 0.00 0.00 0.00 77 1020.1
20260906162805 23 145 9.7 17.7 0.00 0.00 0.00 78 1020.1
20260906162704 23 135 9.7 16.1 0.00 0.00 0.00 78 1020.1
20260906162618 23 132 9.7 16.1 0.00 0.00 0.00 78 1020.1
20260906162504 23 131 9.7 16.1 0.00 0.00 0.00 78 1020.0
20260906162404 23 131 9.7 16.1 0.00 0.00 0.00 78 1020.0
20260906162306 23 127 9.7 16.1 0.00 0.00 0.00 78 1020.0
20260906162218 23 127 9.7 16.1 0.00 0.00 0.00 78 1020.0
20260906162104 23 126 8.0 16.1 0.00 0.00 0.00 77 1020.0
20260906162004 23 126 9.7 19.3 0.00 0.00 0.00 77 1020.0
20260906161905 23 128 9.7 19.3 0.00 0.00 0.00 77 1020.0
20260906161804 23 128 8.0 19.3 0.00 0.00 0.00 78 1020.0
20260906161704 23 131 8.0 19.3 0.00 0.00 0.00 78 1020.0
20260906161604 23 140 8.0 19.3 0.00 0.00 0.00 78 1020.0
20260906161504 23 138 8.0 19.3 0.00 0.00 0.00 78 1020.0
20260906161404 23 143 9.7 25.7 0.00 0.00 0.00 78 1020.0
20260906161304 23 155 9.7 25.7 0.00 0.00 0.00 78 1020.0
20260906161205 23 152 9.7 25.7 0.00 0.00 0.00 78 1020.0
20260906161104 23 152 9.7 25.7 0.00 0.00 0.00 77 1020.0
20260906161018 23 157 9.7 25.7 0.00 0.00 0.00 78 1019.9
20260906160918 23 166 9.7 25.7 0.00 0.00 0.00 78 1019.9
20260906160804 23 171 9.7 25.7 0.00 0.00 0.00 78 1019.9
20260906160718 23 177 9.7 25.7 0.00 0.00 0.00 79 1020.0
20260906160618 23 175 9.7 25.7 0.00 0.00 0.00 79 1019.9
20260906160504 23 173 9.7 25.7 0.00 0.00 0.00 79 1019.9
20260906160404 23 174 8.0 25.7 0.00 0.00 0.00 80 1019.9
20260906160318 23 171 8.0 16.1 0.00 0.00 0.00 80 1019.9
20260906160204 23 174 8.0 16.1 0.00 0.00 0.00 80 1019.9
20260906160104 23 166 8.0 16.1 0.00 0.00 0.00 79 1019.9
20260906160004 23 163 9.7 17.7 0.00 0.00 0.00 79 1019.9
20260906155904 23 152 9.7 17.7 0.00 0.00 0.00 79 1019.9
20260906155804 23 146 11.3 20.9 0.00 0.00 0.00 80 1019.9
20260906155719 23 144 11.3 20.9 0.00 0.00 0.00 80 1020.0
20260906155604 23 144 11.3 20.9 0.00 0.00 0.00 80 1020.0
20260906155504 23 147 11.3 20.9 0.00 0.00 0.00 80 1020.0
20260906155404 23 141 11.3 20.9 0.00 0.00 0.00 80 1020.0
20260906155306 23 137 11.3 20.9 0.00 0.00 0.00 80 1020.0
20260906155218 23 141 12.9 22.5 0.00 0.00 0.00 80 1020.0
20260906155104 23 147 12.9 22.5 0.00 0.00 0.00 80 1020.0
20260906155018 23 149 12.9 22.5 0.00 0.00 0.00 80 1020.0
20260906154904 23 158 12.9 22.5 0.00 0.00 0.00 80 1020.0
20260906154804 23 158 12.9 22.5 0.00 0.00 0.00 81 1019.9
20260906154704 22 154 12.9 22.5 0.00 0.00 0.00 81 1019.9
20260906154618 22 154 12.9 22.5 0.00 0.00 0.00 81 1019.9
20260906154518 22 156 12.9 22.5 0.00 0.00 0.00 81 1019.9
20260906154404 22 162 12.9 22.5 0.00 0.00 0.00 80 1019.9
20260906154304 22 162 12.9 22.5 0.00 0.00 0.00 80 1019.9
20260906154204 22 160 12.9 22.5 0.00 0.00 0.00 80 1019.9
20260906154104 22 160 11.3 22.5 0.00 0.00 0.00 80 1019.8
20260906154018 22 157 11.3 22.5 0.00 0.00 0.00 80 1019.8
20260906153904 22 150 11.3 22.5 0.00 0.00 0.00 81 1019.8
20260906153804 22 147 11.3 22.5 0.00 0.00 0.00 81 1019.9
20260906153704 22 148 11.3 22.5 0.00 0.00 0.00 81 1019.9
20260906153618 22 146 11.3 22.5 0.00 0.00 0.00 81 1019.9
20260906153504 22 148 11.3 22.5 0.00 0.00 0.00 81 1019.9
20260906153404 22 144 11.3 22.5 0.00 0.00 0.00 81 1019.9
20260906153304 22 144 9.7 19.3 0.00 0.00 0.00 81 1020.0
20260906153204 22 143 11.3 19.3 0.00 0.00 0.00 81 1020.0
20260906153104 22 145 11.3 19.3 0.00 0.00 0.00 82 1020.0
20260906153004 22 146 11.3 19.3 0.00 0.00 0.00 82 1020.0
20260906152904 22 152 11.3 19.3 0.00 0.00 0.00 82 1020.1
20260906152818 22 154 11.3 19.3 0.00 0.00 0.00 82 1020.1
20260906152704 22 153 11.3 19.3 0.00 0.00 0.00 82 1020.1
20260906152604 22 155 11.3 19.3 0.00 0.00 0.00 82 1020.2
20260906152504 22 155 11.3 19.3 0.00 0.00 0.00 82 1020.2
20260906152404 22 151 11.3 19.3 0.00 0.00 0.00 82 1020.2
20260906152318 22 152 11.3 19.3 0.00 0.00 0.00 82 1020.3
20260906152218 22 148 12.9 22.5 0.00 0.00 0.00 82 1020.3
20260906152105 22 142 14.5 22.5 0.00 0.00 0.00 82 1020.3
20260906152004 22 143 14.5 22.5 0.00 0.00 0.00 82 1020.3
20260906151918 22 141 14.5 22.5 0.00 0.00 0.00 82 1020.3
20260906151804 22 145 14.5 22.5 0.00 0.00 0.00 82 1020.3
20260906151705 22 149 14.5 22.5 0.00 0.00 0.00 83 1020.3
20260906151604 22 149 14.5 22.5 0.00 0.00 0.00 83 1020.3
20260906151504 22 149 14.5 22.5 0.00 0.00 0.00 83 1020.4
20260906151418 22 154 14.5 22.5 0.00 0.00 0.00 83 1020.3
20260906151304 22 155 14.5 22.5 0.00 0.00 0.00 83 1020.2
20260906151204 22 158 12.9 22.5 0.00 0.00 0.00 83 1020.2
20260906151104 22 161 11.3 22.5 0.00 0.00 0.00 84 1020.2
20260906151004 22 160 9.7 19.3 0.00 0.00 0.00 84 1020.2
20260906150904 22 157 11.3 22.5 0.00 0.00 0.00 84 1020.1
20260906150804 22 151 11.3 22.5 0.00 0.00 0.00 84 1020.0
20260906150704 22 151 11.3 22.5 0.00 0.00 0.00 84 1020.0
20260906150604 22 148 11.3 22.5 0.00 0.00 0.00 85 1020.0
20260906150504 21 147 11.3 22.5 0.00 0.00 0.00 85 1020.0
20260906150404 21 147 11.3 22.5 0.00 0.00 0.00 85 1020.0
20260906150304 21 145 11.3 22.5 0.00 0.00 0.00 85 1020.0
20260906150204 21 149 11.3 22.5 0.00 0.00 0.00 85 1020.0
20260906150104 21 150 11.3 22.5 0.00 0.00 0.00 85 1020.0
20260906150004 21 151 11.3 22.5 0.00 0.00 0.00 85 1020.0
20260906145904 21 154 11.3 22.5 0.00 0.00 0.00 85 1020.0
20260906145804 21 152 11.3 20.9 0.00 0.00 0.00 85 1019.9
20260906145704 21 154 11.3 20.9 0.00 0.00 0.00 86 1019.9
20260906145604 21 158 11.3 20.9 0.00 0.00 0.00 86 1019.9
20260906145504 21 151 9.7 20.9 0.00 0.00 0.00 86 1019.9
20260906145404 21 147 9.7 20.9 0.00 0.00 0.00 86 1019.9
20260906145306 21 151 9.7 19.3 0.00 0.00 0.00 86 1020.0
20260906145204 21 146 9.7 19.3 0.00 0.00 0.00 86 1020.0
20260906145104 21 149 9.7 19.3 0.00 0.00 0.00 86 1019.9
20260906145004 21 153 9.7 19.3 0.00 0.00 0.00 86 1019.9
20260906144904 21 153 8.0 19.3 0.00 0.00 0.00 87 1019.9
20260906144818 21 155 8.0 17.7 0.00 0.00 0.00 87 1019.9
20260906144704 21 155 8.0 17.7 0.00 0.00 0.00 87 1019.9
20260906144604 21 156 8.0 17.7 0.00 0.00 0.00 87 1019.9
20260906144518 21 163 8.0 17.7 0.00 0.00 0.00 87 1020.0
20260906144404 21 164 8.0 17.7 0.00 0.00 0.00 87 1019.9
20260906144318 21 161 8.0 17.7 0.00 0.00 0.00 87 1019.9
20260906144204 21 165 6.4 11.3 0.00 0.00 0.00 87 1019.9
20260906144104 21 166 8.0 11.3 0.00 0.00 0.00 88 1019.9
20260906144004 21 157 9.7 19.3 0.00 0.00 0.00 88 1019.9
20260906143904 21 156 9.7 19.3 0.00 0.00 0.00 87 1019.9
20260906143818 21 157 9.7 19.3 0.00 0.00 0.00 87 1019.9
20260906143718 21 153 9.7 19.3 0.00 0.00 0.00 88 1019.9
20260906143618 21 148 9.7 19.3 0.00 0.00 0.00 88 1019.9
20260906143504 21 148 9.7 19.3 0.00 0.00 0.00 88 1020.0
20260906143405 21 151 9.7 19.3 0.00 0.00 0.00 88 1019.9
20260906143304 21 146 9.7 19.3 0.00 0.00 0.00 88 1019.9
20260906143204 21 142 9.7 19.3 0.00 0.00 0.00 88 1019.9
20260906143104 21 139 9.7 19.3 0.00 0.00 0.00 88 1019.9
20260906143004 21 142 9.7 19.3 0.00 0.00 0.00 89 1019.8
20260906142905 21 139 9.7 16.1 0.00 0.00 0.00 89 1019.8
20260906142804 21 138 9.7 16.1 0.00 0.00 0.00 89 1019.8
20260906142704 21 136 9.7 16.1 0.00 0.00 0.00 89 1019.8
20260906142618 21 136 9.7 16.1 0.00 0.00 0.00 89 1019.8
20260906142504 21 139 8.0 16.1 0.00 0.00 0.00 89 1019.9
20260906142404 21 136 8.0 16.1 0.00 0.00 0.00 89 1019.9
20260906142306 21 139 8.0 16.1 0.00 0.00 0.00 89 1019.9
20260906142204 21 140 8.0 16.1 0.00 0.00 0.00 90 1019.9
20260906142104 21 143 8.0 16.1 0.00 0.00 0.00 90 1019.9
20260906142019 21 139 6.4 16.1 0.00 0.00 0.00 90 1019.9
20260906141918 21 137 6.4 12.9 0.00 0.00 0.00 91 1019.9
20260906141804 21 134 6.4 12.9 0.00 0.00 0.00 91 1019.9
20260906141704 21 138 6.4 12.9 0.00 0.00 0.00 91 1019.9
20260906141604 20 138 8.0 12.9 0.00 0.00 0.00 92 1019.9
20260906141504 20 134 8.0 12.9 0.00 0.00 0.00 92 1019.9
20260906141404 20 139 8.0 12.9 0.00 0.00 0.00 92 1019.9
20260906141304 20 144 8.0 12.9 0.00 0.00 0.00 92 1019.8
20260906141204 20 147 8.0 12.9 0.00 0.00 0.00 92 1019.9
20260906141104 20 146 8.0 12.9 0.00 0.00 0.00 92 1019.9
20260906141004 20 151 6.4 11.3 0.00 0.00 0.00 92 1019.9
20260906140918 20 150 6.4 11.3 0.00 0.00 0.00 92 1019.8
20260906140818 20 151 8.0 14.5 0.00 0.00 0.00 92 1019.9
20260906140704 20 150 8.0 14.5 0.00 0.00 0.00 92 1019.9
20260906140605 20 149 8.0 14.5 0.00 0.00 0.00 92 1019.9
20260906140504 20 153 8.0 14.5 0.00 0.00 0.00 92 1019.9
20260906140404 20 150 8.0 14.5 0.00 0.00 0.00 92 1019.9
20260906140304 20 147 8.0 14.5 0.00 0.00 0.00 93 1019.9
20260906140218 20 141 9.7 14.5 0.00 0.00 0.00 93 1019.8
20260906140118 20 140 9.7 14.5 0.00 0.00 0.00 93 1019.9
20260906140005 20 139 9.7 14.5 0.00 0.00 0.00 93 1019.9
20260906135918 20 141 9.7 14.5 0.00 0.00 0.00 93 1019.8
20260906135804 20 144 8.0 14.5 0.00 0.00 0.00 93 1019.8
20260906135704 20 146 9.7 16.1 0.00 0.00 0.00 93 1019.8
20260906135604 20 147 9.7 17.7 0.00 0.00 0.00 93 1019.7
20260906135504 20 147 9.7 17.7 0.00 0.00 0.00 93 1019.8
20260906135404 20 142 9.7 17.7 0.00 0.00 0.00 93 1019.8
20260906135318 20 141 9.7 17.7 0.00 0.00 0.00 93 1019.7
20260906135204 20 144 9.7 17.7 0.00 0.00 0.00 93 1019.8
20260906135104 20 143 9.7 17.7 0.00 0.00 0.00 93 1019.8
20260906135004 20 141 9.7 17.7 0.00 0.00 0.00 93 1019.8
20260906134904 20 142 9.7 17.7 0.00 0.00 0.00 93 1019.8
20260906134818 20 139 9.7 17.7 0.00 0.00 0.00 93 1019.7
20260906134704 20 139 9.7 17.7 0.00 0.00 0.00 93 1019.8
20260906134604 20 139 8.0 17.7 0.00 0.00 0.00 93 1019.7
20260906134518 20 136 9.7 16.1 0.00 0.00 0.00 93 1019.7
20260906134418 20 140 8.0 16.1 0.00 0.00 0.00 93 1019.7
20260906134304 20 144 8.0 16.1 0.00 0.00 0.00 93 1019.7
20260906134218 20 146 8.0 16.1 0.00 0.00 0.00 93 1019.7
20260906134104 20 146 8.0 16.1 0.00 0.00 0.00 93 1019.7
20260906134004 20 146 9.7 16.1 0.00 0.00 0.00 93 1019.7
20260906133918 20 142 9.7 16.1 0.00 0.00 0.00 93 1019.7
20260906133804 20 145 9.7 16.1 0.00 0.00 0.00 93 1019.8
20260906133718 20 143 9.7 16.1 0.00 0.00 0.00 93 1019.8
20260906133618 20 141 9.7 16.1 0.00 0.00 0.00 93 1019.8
20260906133504 20 142 8.0 14.5 0.00 0.00 0.00 94 1019.8
20260906133404 20 140 8.0 14.5 0.00 0.00 0.00 93 1019.7
20260906133304 20 136 8.0 14.5 0.00 0.00 0.00 93 1019.8
20260906133204 20 135 8.0 14.5 0.00 0.00 0.00 93 1019.7
20260906133104 20 138 8.0 14.5 0.00 0.00 0.00 93 1019.7
20260906133004 20 141 8.0 14.5 0.00 0.00 0.00 93 1019.7
20260906132904 20 151 8.0 14.5 0.00 0.00 0.00 94 1019.7
20260906132804 20 144 6.4 14.5 0.00 0.00 0.00 94 1019.6
20260906132704 20 148 6.4 14.5 0.00 0.00 0.00 94 1019.6
20260906132618 20 149 6.4 11.3 0.00 0.00 0.00 94 1019.6
20260906132504 20 147 6.4 11.3 0.00 0.00 0.00 94 1019.6
20260906132404 20 150 6.4 11.3 0.00 0.00 0.00 94 1019.6
20260906132306 20 149 4.8 11.3 0.00 0.00 0.00 94 1019.5
20260906132218 20 149 4.8 11.3 0.00 0.00 0.00 94 1019.6
20260906132104 20 146 4.8 11.3 0.00 0.00 0.00 94 1019.5
20260906132004 20 144 4.8 11.3 0.00 0.00 0.00 94 1019.5
20260906131904 20 138 4.8 14.5 0.00 0.00 0.00 94 1019.5
20260906131804 20 145 4.8 14.5 0.00 0.00 0.00 94 1019.5
20260906131718 20 143 4.8 14.5 0.00 0.00 0.00 94 1019.6
20260906131604 20 151 4.8 14.5 0.00 0.00 0.00 94 1019.6
20260906131518 20 151 4.8 14.5 0.00 0.00 0.00 94 1019.5
20260906131404 20 149 4.8 14.5 0.00 0.00 0.00 94 1019.5
20260906131304 20 152 4.8 14.5 0.00 0.00 0.00 94 1019.6
20260906131204 20 156 6.4 14.5 0.00 0.00 0.00 94 1019.6
20260906131104 20 155 6.4 14.5 0.00 0.00 0.00 94 1019.5
20260906131004 20 155 6.4 14.5 0.00 0.00 0.00 94 1019.6
20260906130904 20 155 4.8 14.5 0.00 0.00 0.00 94 1019.6
20260906130804 20 155 6.4 19.3 0.00 0.00 0.00 94 1019.5
20260906130704 20 150 8.0 19.3 0.00 0.00 0.00 94 1019.5
20260906130604 20 147 8.0 19.3 0.00 0.00 0.00 94 1019.5
20260906130518 20 148 8.0 19.3 0.00 0.00 0.00 94 1019.5
20260906130418 20 148 8.0 19.3 0.00 0.00 0.00 94 1019.6
20260906130304 20 144 9.7 19.3 0.00 0.00 0.00 94 1019.6
20260906130204 20 137 9.7 19.3 0.00 0.00 0.00 94 1019.5
20260906130104 20 141 9.7 19.3 0.00 0.00 0.00 94 1019.5
20260906130004 20 141 9.7 19.3 0.00 0.00 0.00 94 1019.5
20260906125904 20 143 11.3 19.3 0.00 0.00 0.00 94 1019.6
20260906125804 20 140 9.7 19.3 0.00 0.00 0.00 94 1019.5
20260906125704 20 142 9.7 14.5 0.00 0.00 0.00 94 1019.5
20260906125604 20 141 9.7 14.5 0.00 0.00 0.00 94 1019.5
20260906125504 20 141 9.7 14.5 0.00 0.00 0.00 94 1019.5
20260906125404 20 142 8.0 14.5 0.00 0.00 0.00 94 1019.4
20260906125306 20 143 8.0 14.5 0.00 0.00 0.00 94 1019.4
20260906125218 20 145 8.0 14.5 0.00 0.00 0.00 94 1019.4
20260906125104 20 140 8.0 14.5 0.00 0.00 0.00 94 1019.4
20260906125004 20 135 6.4 12.9 0.00 0.00 0.00 94 1019.4
20260906124904 20 130 6.4 12.9 0.00 0.00 0.00 94 1019.3
20260906124818 20 131 6.4 12.9 0.00 0.00 0.00 94 1019.3
20260906124704 20 127 6.4 12.9 0.00 0.00 0.00 94 1019.4
20260906124604 20 125 4.8 11.3 0.00 0.00 0.00 94 1019.4
20260906124504 20 128 4.8 11.3 0.00 0.00 0.00 94 1019.4
20260906124404 20 125 4.8 11.3 0.00 0.00 0.00 94 1019.4
20260906124304 19 125 4.8 11.3 0.00 0.00 0.00 94 1019.4
20260906124204 19 124 4.8 11.3 0.00 0.00 0.00 94 1019.4
20260906124104 19 128 4.8 6.4 0.00 0.00 0.00 94 1019.4
20260906124004 19 136 3.2 6.4 0.00 0.00 0.00 94 1019.4
20260906123904 19 139 3.2 6.4 0.00 0.00 0.00 95 1019.4
20260906123804 19 141 3.2 6.4 0.00 0.00 0.00 95 1019.4
20260906123704 19 166 3.2 6.4 0.00 0.00 0.00 95 1019.4
20260906123604 19 163 1.6 6.4 0.00 0.00 0.00 95 1019.4
20260906123504 20 127 1.6 4.8 0.00 0.00 0.00 93 1019.4
20260906123404 20 127 1.6 4.8 0.00 0.00 0.00 93 1019.4
20260906123305 20 127 1.6 4.8 0.00 0.00 0.00 93 1019.4
20260906123204 20 127 1.6 4.8 0.00 0.00 0.00 93 1019.4
20260906123104 20 127 1.6 4.8 0.00 0.00 0.00 93 1019.4
20260906123004 20 127 1.6 4.8 0.00 0.00 0.00 93 1019.4
20260906122904 20 127 1.6 4.8 0.00 0.00 0.00 93 1019.4
20260906122804 20 127 1.6 4.8 0.00 0.00 0.00 93 1019.4
20260906122718 20 127 1.6 4.8 0.00 0.00 0.00 93 1019.4
20260906122604 20 127 1.6 4.8 0.00 0.00 0.00 93 1019.4
20260906122504 20 127 1.6 4.8 0.00 0.00 0.00 93 1019.3
20260906122404 20 127 1.6 4.8 0.00 0.00 0.00 93 1019.3
20260906122306 20 127 1.6 4.8 0.00 0.00 0.00 93 1019.4
20260906122204 20 127 1.6 4.8 0.00 0.00 0.00 93 1019.3
20260906122118 20 127 1.6 4.8 0.00 0.00 0.00 93 1019.3
20260906122004 20 127 1.6 4.8 0.00 0.00 0.00 93 1019.3
20260906121904 20 127 1.6 4.8 0.00 0.00 0.00 93 1019.4
20260906121818 20 127 1.6 4.8 0.00 0.00 0.00 93 1019.3
20260906121704 20 127 1.6 4.8 0.00 0.00 0.00 93 1019.3
20260906121605 20 127 1.6 4.8 0.00 0.00 0.00 93 1019.3
20260906121504 20 127 1.6 4.8 0.00 0.00 0.00 93 1019.3
20260906121404 20 127 1.6 4.8 0.00 0.00 0.00 93 1019.3
20260906121318 20 127 1.6 4.8 0.00 0.00 0.00 93 1019.3
20260906121204 20 127 1.6 4.8 0.00 0.00 0.00 93 1019.3
20260906121104 20 127 1.6 4.8 0.00 0.00 0.00 93 1019.3
20260906121004 20 127 1.6 4.8 0.00 0.00 0.00 93 1019.2
20260906120918 20 127 1.6 4.8 0.00 0.00 0.00 93 1019.2
20260906120804 20 127 1.6 4.8 0.00 0.00 0.00 93 1019.2
20260906120704 20 127 1.6 4.8 0.00 0.00 0.00 93 1019.2
20260906120604 20 127 1.6 4.8 0.00 0.00 0.00 93 1019.2
20260906120504 20 127 1.6 4.8 0.00 0.00 0.00 93 1019.1
20260906120404 20 127 1.6 4.8 0.00 0.00 0.00 93 1019.1
20260906120304 20 127 1.6 4.8 0.00 0.00 0.00 93 1019.1
20260906120204 20 127 1.6 4.8 0.00 0.00 0.00 93 1019.1
20260906120104 20 127 1.6 4.8 0.00 0.00 0.00 93 1019.1
20260906120004 20 127 1.6 4.8 0.00 0.00 0.00 93 1019.1
20260906115904 20 127 1.6 4.8 0.00 0.00 0.00 93 1019.0
20260906115804 20 127 1.6 4.8 0.00 0.00 0.00 93 1019.1
20260906115704 20 127 1.6 4.8 0.00 0.00 0.00 93 1019.1
20260906115619 20 127 1.6 4.8 0.00 0.00 0.00 93 1019.0
20260906115504 20 127 1.6 4.8 0.00 0.00 0.00 93 1019.1
20260906115404 20 127 1.6 4.8 0.00 0.00 0.00 93 1019.1
20260906115306 20 127 1.6 4.8 0.00 0.00 0.00 93 1019.2
20260906115218 20 127 1.6 4.8 0.00 0.00 0.00 93 1019.2
20260906115104 20 127 1.6 4.8 0.00 0.00 0.00 93 1019.2
20260906115018 20 127 1.6 4.8 0.00 0.00 0.00 93 1019.1
20260906114904 20 127 1.6 4.8 0.00 0.00 0.00 93 1019.1
20260906114804 20 127 1.6 4.8 0.00 0.00 0.00 93 1019.1
20260906114704 20 127 1.6 4.8 0.00 0.00 0.00 93 1019.1
20260906114604 20 127 1.6 4.8 0.00 0.00 0.00 93 1019.1
20260906114504 20 127 1.6 4.8 0.00 0.00 0.00 93 1019.1
20260906114418 20 127 1.6 4.8 0.00 0.00 0.00 93 1019.1
20260906114304 20 127 1.6 4.8 0.00 0.00 0.00 93 1019.1
20260906114204 20 127 1.6 4.8 0.00 0.00 0.00 93 1019.0
20260906114103 20 127 1.6 4.8 0.00 0.00 0.00 93 1019.0
20260906114004 20 127 1.6 4.8 0.00 0.00 0.00 93 1019.0
20260906113904 20 127 1.6 4.8 0.00 0.00 0.00 93 1019.1
20260906113804 20 127 1.6 4.8 0.00 0.00 0.00 93 1019.1
20260906113718 20 127 1.6 4.8 0.00 0.00 0.00 93 1019.0
20260906113604 20 127 1.6 4.8 0.00 0.00 0.00 93 1019.1
20260906113504 20 127 1.6 4.8 0.00 0.00 0.00 93 1019.1
20260906113418 20 127 1.6 4.8 0.00 0.00 0.00 93 1019.1
20260906113318 20 127 1.6 4.8 0.00 0.00 0.00 93 1019.1
20260906113204 20 127 1.6 4.8 0.00 0.00 0.00 93 1019.1
20260906113104 20 127 1.6 4.8 0.00 0.00 0.00 93 1019.1
20260906113004 20 127 1.6 4.8 0.00 0.00 0.00 93 1019.1
20260906112904 20 127 1.6 4.8 0.00 0.00 0.00 93 1019.0
20260906112804 20 127 1.6 4.8 0.00 0.00 0.00 93 1019.0
20260906112704 20 127 1.6 4.8 0.00 0.00 0.00 93 1018.9
20260906112604 20 127 1.6 4.8 0.00 0.00 0.00 93 1019.0
20260906112517 20 127 1.6 4.8 0.00 0.00 0.00 93 1018.9
20260906112418 20 127 1.6 4.8 0.00 0.00 0.00 93 1018.9
20260906112306 20 127 1.6 4.8 0.00 0.00 0.00 93 1018.9
20260906112204 20 127 1.6 4.8 0.00 0.00 0.00 93 1018.9
20260906112104 20 127 1.6 4.8 0.00 0.00 0.00 93 1018.9
20260906112004 20 127 1.6 4.8 0.00 0.00 0.00 93 1018.9
20260906111903 20 127 1.6 4.8 0.00 0.00 0.00 93 1018.9
20260906111804 20 127 1.6 4.8 0.00 0.00 0.00 93 1018.9
20260906111704 20 127 1.6 4.8 0.00 0.00 0.00 93 1018.8
20260906111604 20 127 1.6 4.8 0.00 0.00 0.00 93 1018.9
20260906111504 20 127 1.6 4.8 0.00 0.00 0.00 93 1018.8
20260906111404 20 127 1.6 4.8 0.00 0.00 0.00 93 1018.7
20260906111304 20 127 1.6 4.8 0.00 0.00 0.00 93 1018.8
20260906111204 20 127 1.6 4.8 0.00 0.00 0.00 93 1018.8
20260906111104 20 127 1.6 4.8 0.00 0.00 0.00 93 1018.8
20260906111018 20 127 1.6 4.8 0.00 0.00 0.00 93 1018.8
20260906110904 20 127 1.6 4.8 0.00 0.00 0.00 93 1018.8
20260906110803 20 127 1.6 4.8 0.00 0.00 0.00 93 1018.8
20260906110704 20 127 1.6 4.8 0.00 0.00 0.00 93 1018.8
20260906110605 20 127 1.6 4.8 0.00 0.00 0.00 93 1018.8
20260906110504 20 127 1.6 4.8 0.00 0.00 0.00 93 1018.8
20260906110418 20 127 1.6 4.8 0.00 0.00 0.00 93 1018.7
20260906110304 20 127 1.6 4.8 0.00 0.00 0.00 93 1018.7
20260906110204 20 127 1.6 4.8 0.00 0.00 0.00 93 1018.8
20260906110104 20 127 1.6 4.8 0.00 0.00 0.00 93 1018.7
20260906110018 20 127 1.6 4.8 0.00 0.00 0.00 93 1018.8
20260906105918 20 127 1.6 4.8 0.00 0.00 0.00 93 1018.7
20260906105804 20 127 1.6 4.8 0.00 0.00 0.00 93 1018.7
20260906105718 20 127 1.6 4.8 0.00 0.00 0.00 93 1018.7
20260906105604 20 127 1.6 4.8 0.00 0.00 0.00 93 1018.7
20260906105518 20 127 1.6 4.8 0.00 0.00 0.00 93 1018.6
20260906105404 20 127 1.6 4.8 0.00 0.00 0.00 93 1018.6
20260906105306 20 127 1.6 4.8 0.00 0.00 0.00 93 1018.6
20260906105204 20 127 1.6 4.8 0.00 0.00 0.00 93 1018.6
20260906105118 20 127 1.6 4.8 0.00 0.00 0.00 93 1018.6
20260906105004 20 127 1.6 4.8 0.00 0.00 0.00 93 1018.5
20260906104904 20 127 1.6 4.8 0.00 0.00 0.00 93 1018.6
20260906104804 20 127 1.6 4.8 0.00 0.00 0.00 93 1018.5
20260906104704 20 127 1.6 4.8 0.00 0.00 0.00 93 1018.6
20260906104604 20 127 1.6 4.8 0.00 0.00 0.00 93 1018.5
20260906104518 20 127 1.6 4.8 0.00 0.00 0.00 93 1018.6
20260906104418 20 127 1.6 4.8 0.00 0.00 0.00 93 1018.6
20260906104304 20 127 1.6 4.8 0.00 0.00 0.00 93 1018.5
20260906104204 20 127 1.6 4.8 0.00 0.00 0.00 93 1018.6
20260906104104 20 127 1.6 4.8 0.00 0.00 0.00 93 1018.5
20260906104004 20 127 1.6 4.8 0.00 0.00 0.00 93 1018.6
20260906103904 20 127 1.6 4.8 0.00 0.00 0.00 93 1018.6
20260906103803 20 127 1.6 4.8 0.00 0.00 0.00 93 1018.6
20260906103718 20 127 1.6 4.8 0.00 0.00 0.00 93 1018.6
20260906103604 20 127 1.6 4.8 0.00 0.00 0.00 93 1018.6
20260906103504 20 127 1.6 4.8 0.00 0.00 0.00 93 1018.6
20260906103404 20 127 1.6 4.8 0.00 0.00 0.00 93 1018.6
20260906103304 20 127 1.6 4.8 0.00 0.00 0.00 93 1018.6
20260906103204 20 127 1.6 4.8 0.00 0.00 0.00 93 1018.7
20260906103105 20 127 1.6 4.8 0.00 0.00 0.00 93 1018.7
20260906103004 20 127 1.6 4.8 0.00 0.00 0.00 93 1018.7
20260906102904 20 127 1.6 4.8 0.00 0.00 0.00 93 1018.7
20260906102804 20 127 1.6 4.8 0.00 0.00 0.00 93 1018.6
20260906102704 20 127 1.6 4.8 0.00 0.00 0.00 93 1018.6
20260906102604 20 127 1.6 4.8 0.00 0.00 0.00 93 1018.6
20260906102504 20 127 1.6 4.8 0.00 0.00 0.00 93 1018.7
20260906102418 20 127 1.6 4.8 0.00 0.00 0.00 93 1018.6
20260906102306 20 127 1.6 4.8 0.00 0.00 0.00 93 1018.6
20260906102204 20 127 1.6 4.8 0.00 0.00 0.00 93 1018.7
20260906102118 20 127 1.6 4.8 0.00 0.00 0.00 93 1018.6
20260906102004 20 127 1.6 4.8 0.00 0.00 0.00 93 1018.6
20260906101918 20 127 1.6 4.8 0.00 0.00 0.00 93 1018.6
20260906101804 20 127 1.6 4.8 0.00 0.00 0.00 93 1018.6
20260906101704 20 127 1.6 4.8 0.00 0.00 0.00 93 1018.6
20260906101618 20 127 1.6 4.8 0.00 0.00 0.00 93 1018.6
20260906101504 20 127 1.6 4.8 0.00 0.00 0.00 93 1018.6
20260906101404 20 127 1.6 4.8 0.00 0.00 0.00 93 1018.5
20260906101304 20 127 1.6 4.8 0.00 0.00 0.00 93 1018.5
20260906101218 20 127 1.6 4.8 0.00 0.00 0.00 93 1018.6
20260906101104 20 127 1.6 4.8 0.00 0.00 0.00 93 1018.5
20260906101004 20 127 1.6 4.8 0.00 0.00 0.00 93 1018.5
20260906100918 20 127 1.6 4.8 0.00 0.00 0.00 93 1018.4
20260906100804 20 127 1.6 4.8 0.00 0.00 0.00 93 1018.4
20260906100704 20 128 1.6 4.8 0.00 0.00 0.00 93 1018.4
20260906100618 20 129 1.6 4.8 0.00 0.00 0.00 93 1018.4
20260906100504 20 126 1.6 4.8 0.00 0.00 0.00 93 1018.4
20260906100404 20 132 1.6 4.8 0.00 0.00 0.00 93 1018.4
20260906100304 20 134 1.6 4.8 0.00 0.00 0.00 93 1018.3
20260906100203 20 139 1.6 3.2 0.00 0.00 0.00 93 1018.4
20260906100104 20 137 1.6 6.4 0.00 0.00 0.00 93 1018.3
20260906100004 20 128 3.2 6.4 0.00 0.00 0.00 93 1018.2
20260906095904 20 125 3.2 6.4 0.00 0.00 0.00 93 1018.2
20260906095804 20 121 3.2 6.4 0.00 0.00 0.00 93 1018.1
20260906095704 20 121 3.2 6.4 0.00 0.00 0.00 93 1018.1
20260906095604 20 121 3.2 6.4 0.00 0.00 0.00 92 1018.1
20260906095504 20 121 3.2 6.4 0.00 0.00 0.00 93 1018.1
20260906095404 20 118 3.2 6.4 0.00 0.00 0.00 93 1018.0
20260906095318 20 114 3.2 6.4 0.00 0.00 0.00 92 1018.0
20260906095204 20 114 3.2 6.4 0.00 0.00 0.00 92 1018.0
20260906095118 20 106 3.2 6.4 0.00 0.00 0.00 92 1018.0
20260906095004 20 110 3.2 6.4 0.00 0.00 0.00 92 1018.0
20260906094904 20 111 3.2 4.8 0.00 0.00 0.00 92 1017.9
20260906094804 20 114 3.2 4.8 0.00 0.00 0.00 92 1017.9
20260906094704 20 117 3.2 4.8 0.00 0.00 0.00 92 1017.9
20260906094618 20 115 3.2 9.7 0.00 0.00 0.00 92 1017.9
20260906094504 20 116 3.2 9.7 0.00 0.00 0.00 92 1017.8
20260906094404 20 117 3.2 9.7 0.00 0.00 0.00 92 1017.8
20260906094304 20 122 3.2 9.7 0.00 0.00 0.00 92 1017.9
20260906094204 20 129 3.2 9.7 0.00 0.00 0.00 92 1017.9
20260906094104 20 139 3.2 9.7 0.00 0.00 0.00 92 1017.9
20260906094004 20 142 3.2 9.7 0.00 0.00 0.00 92 1017.9
20260906093904 20 141 3.2 9.7 0.00 0.00 0.00 92 1017.8
20260906093804 20 138 3.2 9.7 0.00 0.00 0.00 92 1017.8
20260906093704 20 139 3.2 9.7 0.00 0.00 0.00 92 1017.9
20260906093604 20 142 3.2 9.7 0.00 0.00 0.00 92 1017.8
20260906093504 20 141 3.2 6.4 0.00 0.00 0.00 92 1017.8
20260906093404 20 141 3.2 6.4 0.00 0.00 0.00 92 1017.8
20260906093304 20 142 3.2 6.4 0.00 0.00 0.00 92 1017.9
20260906093204 20 142 3.2 6.4 0.00 0.00 0.00 92 1017.8
20260906093104 20 142 3.2 6.4 0.00 0.00 0.00 92 1017.8
20260906093004 20 142 3.2 6.4 0.00 0.00 0.00 92 1017.9
20260906092903 20 144 3.2 6.4 0.00 0.00 0.00 92 1017.8
20260906092804 20 149 3.2 6.4 0.00 0.00 0.00 92 1017.8
20260906092704 20 149 3.2 6.4 0.00 0.00 0.00 92 1017.7
20260906092618 20 146 3.2 8.0 0.00 0.00 0.00 92 1017.7
20260906092518 20 147 3.2 8.0 0.00 0.00 0.00 92 1017.7
20260906092403 20 149 3.2 8.0 0.00 0.00 0.00 92 1017.6
20260906092318 20 142 3.2 8.0 0.00 0.00 0.00 92 1017.7
20260906092204 20 141 3.2 8.0 0.00 0.00 0.00 92 1017.7
20260906092117 20 143 3.2 8.0 0.00 0.00 0.00 92 1017.6
20260906092004 20 138 3.2 8.0 0.00 0.00 0.00 92 1017.6
20260906091904 20 137 3.2 8.0 0.00 0.00 0.00 92 1017.6
20260906091804 20 133 3.2 8.0 0.00 0.00 0.00 92 1017.6
20260906091704 20 133 3.2 8.0 0.00 0.00 0.00 92 1017.6
20260906091618 20 129 3.2 8.0 0.00 0.00 0.00 92 1017.6
20260906091504 20 128 3.2 6.4 0.00 0.00 0.00 92 1017.6
20260906091404 20 120 3.2 6.4 0.00 0.00 0.00 92 1017.7
20260906091304 20 122 3.2 6.4 0.00 0.00 0.00 92 1017.7
20260906091204 20 120 3.2 6.4 0.00 0.00 0.00 92 1017.7
20260906091104 20 122 3.2 6.4 0.00 0.00 0.00 92 1017.7
20260906091003 20 125 3.2 6.4 0.00 0.00 0.00 92 1017.7
20260906090904 20 120 3.2 6.4 0.00 0.00 0.00 92 1017.8
20260906090804 20 119 3.2 6.4 0.00 0.00 0.00 92 1017.7
20260906090704 20 119 3.2 6.4 0.00 0.00 0.00 92 1017.7
20260906090604 20 123 3.2 6.4 0.00 0.00 0.00 92 1017.7
20260906090504 20 119 3.2 6.4 0.00 0.00 0.00 92 1017.7
20260906090418 20 122 3.2 6.4 0.00 0.00 0.00 92 1017.7
20260906090303 20 121 3.2 6.4 0.00 0.00 0.00 92 1017.7
20260906090218 20 113 3.2 6.4 0.00 0.00 0.00 92 1017.7
20260906090104 20 111 3.2 6.4 0.00 0.00 0.00 92 1017.7
20260906090004 20 118 3.2 6.4 0.00 0.00 0.00 92 1017.7
20260906085918 20 120 3.2 6.4 0.00 0.00 0.00 92 1017.7
20260906085804 20 126 3.2 6.4 0.00 0.00 0.00 92 1017.7
20260906085704 20 122 3.2 6.4 0.00 0.00 0.00 92 1017.7
20260906085604 20 120 3.2 9.7 0.00 0.00 0.00 92 1017.7
20260906085504 20 117 4.8 9.7 0.00 0.00 0.00 92 1017.7
20260906085404 20 119 4.8 9.7 0.00 0.00 0.00 92 1017.8
20260906085306 20 119 4.8 9.7 0.00 0.00 0.00 92 1017.7
20260906085204 20 124 4.8 9.7 0.00 0.00 0.00 92 1017.7
20260906085104 20 124 4.8 9.7 0.00 0.00 0.00 91 1017.8
20260906085004 20 120 4.8 9.7 0.00 0.00 0.00 91 1017.7
20260906084904 20 122 4.8 9.7 0.00 0.00 0.00 91 1017.7
20260906084804 20 117 4.8 9.7 0.00 0.00 0.00 91 1017.7
20260906084704 20 119 4.8 9.7 0.00 0.00 0.00 91 1017.7
20260906084604 20 119 4.8 9.7 0.00 0.00 0.00 91 1017.6
20260906084503 20 121 3.2 9.7 0.00 0.00 0.00 91 1017.6
20260906084404 20 119 3.2 8.0 0.00 0.00 0.00 91 1017.7
20260906084303 20 118 3.2 8.0 0.00 0.00 0.00 91 1017.6
20260906084218 20 119 4.8 8.0 0.00 0.00 0.00 91 1017.6
20260906084118 20 118 4.8 8.0 0.00 0.00 0.00 91 1017.6
20260906084004 20 118 4.8 8.0 0.00 0.00 0.00 91 1017.6
20260906083904 20 119 3.2 8.0 0.00 0.00 0.00 91 1017.6
20260906083818 20 122 3.2 4.8 0.00 0.00 0.00 91 1017.6
20260906083704 20 123 3.2 4.8 0.00 0.00 0.00 91 1017.6
20260906083604 20 122 3.2 8.0 0.00 0.00 0.00 91 1017.6
20260906083504 20 126 3.2 8.0 0.00 0.00 0.00 91 1017.7
20260906083404 20 129 3.2 8.0 0.00 0.00 0.00 91 1017.7
20260906083304 20 131 3.2 8.0 0.00 0.00 0.00 91 1017.8
20260906083204 20 132 3.2 8.0 0.00 0.00 0.00 91 1017.8
20260906083118 20 136 3.2 8.0 0.00 0.00 0.00 91 1017.8
20260906083004 20 135 3.2 8.0 0.00 0.00 0.00 91 1017.8
20260906082903 20 134 3.2 8.0 0.00 0.00 0.00 91 1017.9
20260906082818 20 134 3.2 8.0 0.00 0.00 0.00 91 1017.9
20260906082704 20 133 3.2 8.0 0.00 0.00 0.00 91 1017.9
20260906082617 20 135 3.2 8.0 0.00 0.00 0.00 91 1017.9
20260906082504 20 135 1.6 4.8 0.00 0.00 0.00 91 1017.8
20260906082404 20 133 1.6 4.8 0.00 0.00 0.00 91 1017.8
20260906082306 20 138 1.6 4.8 0.00 0.00 0.00 91 1017.8
20260906082204 20 136 1.6 3.2 0.00 0.00 0.00 91 1017.8
20260906082103 20 132 1.6 3.2 0.00 0.00 0.00 91 1017.8
20260906082004 21 134 1.6 4.8 0.00 0.00 0.00 90 1017.8
20260906081904 21 129 3.2 8.0 0.00 0.00 0.00 90 1017.8
20260906081804 21 121 3.2 8.0 0.00 0.00 0.00 90 1017.7
20260906081718 21 121 3.2 8.0 0.00 0.00 0.00 90 1017.8
20260906081604 21 118 3.2 8.0 0.00 0.00 0.00 90 1017.7
20260906081504 21 120 3.2 8.0 0.00 0.00 0.00 90 1017.7
20260906081404 21 119 3.2 8.0 0.00 0.00 0.00 90 1017.7
20260906081304 21 115 3.2 8.0 0.00 0.00 0.00 90 1017.7
20260906081204 21 116 3.2 8.0 0.00 0.00 0.00 90 1017.6
20260906081104 21 116 3.2 8.0 0.00 0.00 0.00 90 1017.7
20260906081004 21 112 3.2 8.0 0.00 0.00 0.00 90 1017.7
20260906080904 21 110 1.6 8.0 0.00 0.00 0.00 90 1017.7
20260906080803 21 122 1.6 6.4 0.00 0.00 0.00 90 1017.7
20260906080704 21 124 3.2 9.7 0.00 0.00 0.00 90 1017.7
20260906080603 21 125 3.2 9.7 0.00 0.00 0.00 90 1017.7
20260906080504 21 124 3.2 9.7 0.00 0.00 0.00 90 1017.7
20260906080404 21 125 3.2 9.7 0.00 0.00 0.00 90 1017.7
20260906080304 21 128 3.2 9.7 0.00 0.00 0.00 90 1017.8
20260906080204 21 127 3.2 9.7 0.00 0.00 0.00 90 1017.7
20260906080104 21 129 3.2 9.7 0.00 0.00 0.00 90 1017.7
20260906080004 21 128 3.2 9.7 0.00 0.00 0.00 90 1017.7
20260906075904 21 132 3.2 9.7 0.00 0.00 0.00 90 1017.7
20260906075804 21 133 3.2 9.7 0.00 0.00 0.00 90 1017.8
20260906075704 21 132 3.2 9.7 0.00 0.00 0.00 90 1017.7
20260906075604 21 131 3.2 8.0 0.00 0.00 0.00 90 1017.7
20260906075504 21 129 3.2 8.0 0.00 0.00 0.00 90 1017.8
20260906075404 21 129 3.2 8.0 0.00 0.00 0.00 90 1017.8
20260906075306 21 122 3.2 8.0 0.00 0.00 0.00 90 1017.9
20260906075204 21 122 3.2 8.0 0.00 0.00 0.00 90 1017.9
20260906075104 21 120 3.2 4.8 0.00 0.00 0.00 90 1017.9
20260906075004 21 119 3.2 8.0 0.00 0.00 0.00 90 1017.9
20260906074903 21 124 3.2 8.0 0.00 0.00 0.00 90 1017.9
20260906074804 21 123 3.2 8.0 0.00 0.00 0.00 90 1017.9
20260906074704 21 122 3.2 8.0 0.00 0.00 0.00 90 1017.9
20260906074604 21 125 3.2 8.0 0.00 0.00 0.00 90 1017.9
20260906074504 21 131 3.2 8.0 0.00 0.00 0.00 90 1017.9
20260906074404 21 134 3.2 8.0 0.00 0.00 0.00 90 1017.8
20260906074304 21 137 3.2 8.0 0.00 0.00 0.00 90 1017.8
20260906074204 21 142 3.2 8.0 0.00 0.00 0.00 90 1017.8
20260906074104 21 140 3.2 8.0 0.00 0.00 0.00 90 1017.8
20260906074003 21 139 3.2 8.0 0.00 0.00 0.00 90 1017.9
20260906073904 21 139 3.2 8.0 0.00 0.00 0.00 90 1017.8
20260906073804 21 139 3.2 8.0 0.00 0.00 0.00 90 1017.7
20260906073704 21 139 3.2 8.0 0.00 0.00 0.00 90 1017.8
20260906073604 21 136 4.8 8.0 0.00 0.00 0.00 90 1017.8
20260906073504 21 133 3.2 6.4 0.00 0.00 0.00 90 1017.8
20260906073404 21 131 4.8 6.4 0.00 0.00 0.00 90 1017.8
20260906073317 21 134 3.2 6.4 0.00 0.00 0.00 90 1017.8
20260906073204 21 131 3.2 6.4 0.00 0.00 0.00 90 1017.8
20260906073104 21 131 3.2 6.4 0.00 0.00 0.00 90 1017.8
20260906073004 21 131 3.2 6.4 0.00 0.00 0.00 89 1017.9
20260906072904 21 129 3.2 6.4 0.00 0.00 0.00 89 1017.9
20260906072804 21 130 3.2 6.4 0.00 0.00 0.00 89 1017.9
20260906072704 21 129 3.2 6.4 0.00 0.00 0.00 89 1017.9
20260906072618 21 131 3.2 6.4 0.00 0.00 0.00 89 1017.9
20260906072504 21 133 3.2 6.4 0.00 0.00 0.00 89 1017.9
20260906072418 21 138 3.2 4.8 0.00 0.00 0.00 89 1017.9
20260906072306 21 140 3.2 4.8 0.00 0.00 0.00 89 1018.0
20260906072218 21 141 3.2 4.8 0.00 0.00 0.00 89 1018.0
20260906072104 21 140 3.2 8.0 0.00 0.00 0.00 89 1018.0
20260906072004 21 141 3.2 8.0 0.00 0.00 0.00 89 1018.0
20260906071903 21 141 3.2 8.0 0.00 0.00 0.00 89 1018.0
20260906071804 21 143 3.2 8.0 0.00 0.00 0.00 89 1018.0
20260906071704 21 145 3.2 8.0 0.00 0.00 0.00 89 1018.0
20260906071603 21 146 3.2 8.0 0.00 0.00 0.00 89 1018.0
20260906071518 21 141 3.2 8.0 0.00 0.00 0.00 89 1018.0
20260906071404 21 138 3.2 8.0 0.00 0.00 0.00 89 1018.0
20260906071303 21 133 3.2 8.0 0.00 0.00 0.00 89 1018.0
20260906071204 21 133 3.2 8.0 0.00 0.00 0.00 89 1018.0
20260906071104 21 134 1.6 8.0 0.00 0.00 0.00 89 1018.0
20260906071004 21 135 1.6 4.8 0.00 0.00 0.00 89 1018.0
20260906070903 21 134 1.6 4.8 0.00 0.00 0.00 89 1018.0
20260906070803 21 130 3.2 6.4 0.00 0.00 0.00 89 1018.0
20260906070704 21 131 3.2 6.4 0.00 0.00 0.00 89 1018.0
20260906070604 21 131 3.2 6.4 0.00 0.00 0.00 89 1018.0
20260906070504 21 135 3.2 6.4 0.00 0.00 0.00 88 1018.0
20260906070404 21 135 3.2 6.4 0.00 0.00 0.00 88 1018.0
20260906070304 21 136 3.2 6.4 0.00 0.00 0.00 88 1018.0
20260906070204 21 135 1.6 6.4 0.00 0.00 0.00 88 1018.0
20260906070104 21 133 1.6 6.4 0.00 0.00 0.00 88 1018.0
20260906070018 21 129 1.6 6.4 0.00 0.00 0.00 88 1018.0
20260906065904 21 128 1.6 6.4 0.00 0.00 0.00 88 1018.0
20260906065803 21 127 1.6 6.4 0.00 0.00 0.00 88 1018.0
20260906065704 21 122 1.6 4.8 0.00 0.00 0.00 88 1018.1
20260906065604 21 120 1.6 4.8 0.00 0.00 0.00 88 1018.0
20260906065503 21 122 1.6 4.8 0.00 0.00 0.00 88 1018.1
20260906065404 21 121 1.6 4.8 0.00 0.00 0.00 88 1018.1
20260906065305 21 118 1.6 4.8 0.00 0.00 0.00 88 1018.1
20260906065204 21 118 1.6 4.8 0.00 0.00 0.00 88 1018.1
20260906065104 21 117 1.6 4.8 0.00 0.00 0.00 88 1018.1
20260906065004 21 117 1.6 4.8 0.00 0.00 0.00 88 1018.1
20260906064903 21 117 3.2 6.4 0.00 0.00 0.00 88 1018.1
20260906064818 21 112 3.2 6.4 0.00 0.00 0.00 88 1018.1
20260906064704 21 112 1.6 6.4 0.00 0.00 0.00 88 1018.1
20260906064617 21 112 1.6 6.4 0.00 0.00 0.00 88 1018.1
20260906064518 21 110 1.6 6.4 0.00 0.00 0.00 88 1018.1
20260906064403 21 110 1.6 6.4 0.00 0.00 0.00 88 1018.0
20260906064304 21 112 1.6 6.4 0.00 0.00 0.00 88 1018.0
20260906064204 21 115 3.2 9.7 0.00 0.00 0.00 88 1018.0
20260906064103 21 118 3.2 9.7 0.00 0.00 0.00 87 1018.0
20260906064004 21 117 3.2 9.7 0.00 0.00 0.00 87 1018.0
20260906063903 21 118 3.2 9.7 0.00 0.00 0.00 87 1018.0
20260906063804 21 128 3.2 9.7 0.00 0.00 0.00 87 1018.1
20260906063704 21 126 3.2 9.7 0.00 0.00 0.00 87 1018.1
20260906063618 21 124 3.2 9.7 0.00 0.00 0.00 87 1018.1
20260906063503 21 124 3.2 9.7 0.00 0.00 0.00 87 1018.1
20260906063404 21 127 3.2 9.7 0.00 0.00 0.00 87 1018.1
20260906063304 21 128 3.2 9.7 0.00 0.00 0.00 87 1018.1
20260906063204 21 128 3.2 9.7 0.00 0.00 0.00 87 1018.1
20260906063104 21 127 3.2 6.4 0.00 0.00 0.00 87 1018.1
20260906063006 21 128 3.2 6.4 0.00 0.00 0.00 87 1018.1
20260906062904 21 129 3.2 4.8 0.00 0.00 0.00 87 1018.1
20260906062804 21 126 3.2 4.8 0.00 0.00 0.00 87 1018.2
20260906062703 21 127 3.2 4.8 0.00 0.00 0.00 87 1018.2
20260906062604 21 129 3.2 4.8 0.00 0.00 0.00 86 1018.1
20260906062504 21 129 3.2 4.8 0.00 0.00 0.00 86 1018.2
20260906062418 21 125 3.2 4.8 0.00 0.00 0.00 86 1018.2
20260906062306 21 124 1.6 4.8 0.00 0.00 0.00 86 1018.2
20260906062203 21 122 1.6 4.8 0.00 0.00 0.00 86 1018.2
20260906062104 21 121 1.6 4.8 0.00 0.00 0.00 86 1018.3
20260906062003 21 119 1.6 4.8 0.00 0.00 0.00 86 1018.2
20260906061904 21 118 1.6 4.8 0.00 0.00 0.00 86 1018.3
20260906061803 21 120 1.6 4.8 0.00 0.00 0.00 86 1018.3
20260906061718 21 119 1.6 4.8 0.00 0.00 0.00 86 1018.3
20260906061603 21 113 1.6 4.8 0.00 0.00 0.00 86 1018.4
20260906061504 21 113 1.6 4.8 0.00 0.00 0.00 86 1018.4
20260906061403 21 106 1.6 4.8 0.00 0.00 0.00 86 1018.4
20260906061304 21 101 1.6 4.8 0.00 0.00 0.00 86 1018.4
20260906061203 22 99 1.6 4.8 0.00 0.00 0.00 86 1018.3
20260906061118 22 98 1.6 4.8 0.00 0.00 0.00 86 1018.3
20260906061003 22 106 1.6 4.8 0.00 0.00 0.00 86 1018.3
20260906060904 22 105 1.6 4.8 0.00 0.00 0.00 86 1018.3
20260906060804 22 105 1.6 4.8 0.00 0.00 0.00 86 1018.3
20260906060703 22 106 1.6 4.8 0.00 0.00 0.00 86 1018.3
20260906060604 22 113 1.6 3.2 0.00 0.00 0.00 85 1018.3
20260906060518 22 116 1.6 4.8 0.00 0.00 0.00 85 1018.3
20260906060404 22 126 1.6 4.8 0.00 0.00 0.00 85 1018.3
20260906060304 22 123 1.6 4.8 0.00 0.00 0.00 85 1018.3
20260906060204 22 122 1.6 4.8 0.00 0.00 0.00 85 1018.3
20260906060103 22 120 1.6 4.8 0.00 0.00 0.00 85 1018.3
20260906060004 22 119 1.6 4.8 0.00 0.00 0.00 85 1018.3
20260906055904 22 120 1.6 4.8 0.00 0.00 0.00 85 1018.3
20260906055804 22 120 1.6 4.8 0.00 0.00 0.00 85 1018.3
20260906055704 22 120 1.6 4.8 0.00 0.00 0.00 85 1018.3
20260906055604 22 120 1.6 4.8 0.00 0.00 0.00 85 1018.3
20260906055503 22 119 1.6 4.8 0.00 0.00 0.00 85 1018.3
20260906055404 22 117 1.6 4.8 0.00 0.00 0.00 85 1018.3
20260906055306 22 124 1.6 4.8 0.00 0.00 0.00 85 1018.3
20260906055204 22 124 1.6 4.8 0.00 0.00 0.00 85 1018.2
20260906055104 22 121 1.6 4.8 0.00 0.00 0.00 85 1018.4
20260906055004 22 121 1.6 4.8 0.00 0.00 0.00 85 1018.2
20260906054917 22 120 1.6 4.8 0.00 0.00 0.00 85 1018.3
20260906054803 22 125 1.6 4.8 0.00 0.00 0.00 85 1018.2
20260906054718 22 122 1.6 4.8 0.00 0.00 0.00 84 1018.2
20260906054603 22 121 1.6 4.8 0.00 0.00 0.00 84 1018.3
20260906054504 22 121 1.6 4.8 0.00 0.00 0.00 84 1018.2
20260906054404 22 120 1.6 4.8 0.00 0.00 0.00 84 1018.2
20260906054304 22 109 1.6 4.8 0.00 0.00 0.00 84 1018.2
20260906054218 22 105 1.6 4.8 0.00 0.00 0.00 84 1018.2
20260906054104 22 103 1.6 3.2 0.00 0.00 0.00 84 1018.3
20260906054017 22 102 1.6 3.2 0.00 0.00 0.00 84 1018.3
20260906053904 22 102 1.6 3.2 0.00 0.00 0.00 84 1018.3
20260906053818 22 94 1.6 3.2 0.00 0.00 0.00 84 1018.2
20260906053704 22 94 1.6 4.8 0.00 0.00 0.00 84 1018.3
20260906053603 22 95 1.6 4.8 0.00 0.00 0.00 84 1018.3
20260906053504 22 95 1.6 4.8 0.00 0.00 0.00 84 1018.3
20260906053404 22 99 1.6 4.8 0.00 0.00 0.00 84 1018.3
20260906053303 22 109 1.6 4.8 0.00 0.00 0.00 84 1018.3
20260906053204 22 112 1.6 4.8 0.00 0.00 0.00 84 1018.3
20260906053104 22 127 1.6 4.8 0.00 0.00 0.00 84 1018.3
20260906053004 22 129 1.6 4.8 0.00 0.00 0.00 84 1018.2
20260906052904 22 131 1.6 4.8 0.00 0.00 0.00 84 1018.3
20260906052804 22 131 1.6 4.8 0.00 0.00 0.00 84 1018.2
20260906052703 22 131 1.6 4.8 0.00 0.00 0.00 84 1018.2
20260906052604 22 135 1.6 4.8 0.00 0.00 0.00 84 1018.3
20260906052503 22 135 1.6 4.8 0.00 0.00 0.00 84 1018.3
20260906052404 22 135 1.6 4.8 0.00 0.00 0.00 84 1018.3
20260906052305 22 135 1.6 4.8 0.00 0.00 0.00 84 1018.2
20260906052203 22 135 1.6 4.8 0.00 0.00 0.00 84 1018.2
20260906052104 22 131 1.6 4.8 0.00 0.00 0.00 84 1018.2
20260906052004 22 132 1.6 4.8 0.00 0.00 0.00 84 1018.2
20260906051904 22 138 1.6 3.2 0.00 0.00 0.00 84 1018.2
20260906051803 22 141 1.6 3.2 0.00 0.00 0.00 84 1018.2
20260906051704 22 144 1.6 3.2 0.00 0.00 0.00 84 1018.2
20260906051604 22 146 1.6 3.2 0.00 0.00 0.00 84 1018.2
20260906051518 22 148 1.6 3.2 0.00 0.00 0.00 84 1018.2
20260906051404 22 151 1.6 3.2 0.00 0.00 0.00 84 1018.2
20260906051304 22 151 1.6 3.2 0.00 0.00 0.00 84 1018.2
20260906051203 22 153 1.6 3.2 0.00 0.00 0.00 84 1018.3
20260906051104 22 149 1.6 3.2 0.00 0.00 0.00 84 1018.2
20260906051004 22 150 1.6 3.2 0.00 0.00 0.00 84 1018.2
20260906050904 22 147 1.6 3.2 0.00 0.00 0.00 84 1018.3
20260906050804 22 145 1.6 3.2 0.00 0.00 0.00 84 1018.3
20260906050703 22 143 1.6 3.2 0.00 0.00 0.00 84 1018.3
20260906050604 22 143 1.6 3.2 0.00 0.00 0.00 84 1018.3
20260906050503 22 142 1.6 3.2 0.00 0.00 0.00 84 1018.3
20260906050418 22 137 1.6 3.2 0.00 0.00 0.00 84 1018.3
20260906050317 22 138 1.6 3.2 0.00 0.00 0.00 84 1018.4
20260906050204 22 138 1.6 3.2 0.00 0.00 0.00 85 1018.4
20260906050104 22 136 0.0 3.2 0.00 0.00 0.00 85 1018.3
20260906050006 22 135 0.0 3.2 0.00 0.00 0.00 85 1018.3
20260906045904 22 129 0.0 3.2 0.00 0.00 0.00 85 1018.4
20260906045803 22 126 0.0 3.2 0.00 0.00 0.00 85 1018.3
20260906045704 22 126 0.0 3.2 0.00 0.00 0.00 85 1018.4
20260906045604 22 126 0.0 3.2 0.00 0.00 0.00 85 1018.4
20260906045504 22 126 0.0 3.2 0.00 0.00 0.00 85 1018.4
20260906045404 22 133 0.0 3.2 0.00 0.00 0.00 85 1018.4
20260906045306 22 0 0.0 3.2 0.00 0.00 0.00 85 1018.4
20260906045217 22 0 0.0 3.2 0.00 0.00 0.00 85 1018.4
20260906045104 22 0 0.0 3.2 0.00 0.00 0.00 84 1018.5
20260906045003 22 117 0.0 3.2 0.00 0.00 0.00 84 1018.4
20260906044903 22 124 0.0 3.2 0.00 0.00 0.00 84 1018.4
20260906044818 22 124 0.0 3.2 0.00 0.00 0.00 84 1018.4
20260906044704 22 124 0.0 3.2 0.00 0.00 0.00 84 1018.5
20260906044604 22 124 0.0 3.2 0.00 0.00 0.00 84 1018.5
20260906044504 22 125 0.0 3.2 0.00 0.00 0.00 84 1018.4
20260906044404 22 127 0.0 3.2 0.00 0.00 0.00 84 1018.4
20260906044304 22 128 1.6 3.2 0.00 0.00 0.00 84 1018.4
20260906044204 22 127 1.6 3.2 0.00 0.00 0.00 84 1018.5
20260906044105 22 127 0.0 3.2 0.00 0.00 0.00 84 1018.4
20260906044003 22 128 1.6 3.2 0.00 0.00 0.00 84 1018.4
20260906043904 22 123 0.0 3.2 0.00 0.00 0.00 84 1018.4
20260906043804 22 123 0.0 3.2 0.00 0.00 0.00 84 1018.4
20260906043704 22 123 0.0 3.2 0.00 0.00 0.00 84 1018.4
20260906043603 22 123 0.0 3.2 0.00 0.00 0.00 84 1018.4
20260906043504 22 123 0.0 3.2 0.00 0.00 0.00 84 1018.4
20260906043404 22 120 0.0 3.2 0.00 0.00 0.00 84 1018.4
20260906043303 22 116 0.0 3.2 0.00 0.00 0.00 84 1018.4
20260906043204 22 116 0.0 3.2 0.00 0.00 0.00 84 1018.5
20260906043104 22 116 0.0 3.2 0.00 0.00 0.00 84 1018.5
20260906043004 22 116 0.0 3.2 0.00 0.00 0.00 84 1018.5
20260906042904 22 0 0.0 3.2 0.00 0.00 0.00 84 1018.5
20260906042803 22 0 0.0 3.2 0.00 0.00 0.00 84 1018.5
20260906042704 22 0 0.0 3.2 0.00 0.00 0.00 84 1018.5
20260906042604 22 0 0.0 3.2 0.00 0.00 0.00 84 1018.5
20260906042518 22 0 0.0 3.2 0.00 0.00 0.00 84 1018.5
20260906042404 22 0 0.0 3.2 0.00 0.00 0.00 84 1018.4
20260906042306 22 90 0.0 3.2 0.00 0.00 0.00 84 1018.4
20260906042204 22 90 0.0 3.2 0.00 0.00 0.00 84 1018.4
20260906042117 22 90 0.0 3.2 0.00 0.00 0.00 84 1018.5
20260906042004 22 90 0.0 3.2 0.00 0.00 0.00 84 1018.4
20260906041904 22 90 0.0 3.2 0.00 0.00 0.00 84 1018.4
20260906041817 22 90 0.0 3.2 0.00 0.00 0.00 84 1018.4
20260906041718 22 90 0.0 3.2 0.00 0.00 0.00 84 1018.4
20260906041604 22 90 0.0 3.2 0.00 0.00 0.00 84 1018.4
20260906041504 22 90 0.0 3.2 0.00 0.00 0.00 84 1018.3
20260906041418 22 90 0.0 3.2 0.00 0.00 0.00 84 1018.4
20260906041303 22 0 0.0 3.2 0.00 0.00 0.00 84 1018.4
20260906041217 22 0 0.0 3.2 0.00 0.00 0.00 84 1018.4
20260906041104 22 0 0.0 3.2 0.00 0.00 0.00 84 1018.4
20260906041003 22 0 0.0 3.2 0.00 0.00 0.00 84 1018.4
20260906040904 22 0 0.0 3.2 0.00 0.00 0.00 84 1018.5
20260906040804 22 0 0.0 0.0 0.00 0.00 0.00 84 1018.6
20260906040703 22 0 0.0 0.0 0.00 0.00 0.00 84 1018.6
20260906040604 22 0 0.0 0.0 0.00 0.00 0.00 84 1018.6
20260906040503 22 0 0.0 0.0 0.00 0.00 0.00 84 1018.6
20260906040403 22 0 0.0 0.0 0.00 0.00 0.00 84 1018.6
20260906040303 22 0 0.0 0.0 0.00 0.00 0.00 83 1018.6
20260906040204 22 0 0.0 0.0 0.00 0.00 0.00 83 1018.6
20260906040117 22 0 0.0 0.0 0.00 0.00 0.00 83 1018.6
20260906040004 22 0 0.0 0.0 0.00 0.00 0.00 83 1018.6
20260906035904 22 0 0.0 0.0 0.00 0.00 0.00 83 1018.6
20260906035817 22 0 0.0 0.0 0.00 0.00 0.00 83 1018.5
20260906035704 22 0 0.0 0.0 0.00 0.00 0.00 83 1018.5
20260906035618 22 0 0.0 3.2 0.00 0.00 0.00 83 1018.5
20260906035504 22 90 0.0 3.2 0.00 0.00 0.00 83 1018.4
20260906035404 22 90 0.0 3.2 0.00 0.00 0.00 83 1018.5
20260906035306 22 90 0.0 3.2 0.00 0.00 0.00 83 1018.5
20260906035204 22 90 0.0 3.2 0.00 0.00 0.00 83 1018.5
20260906035104 22 90 0.0 3.2 0.00 0.00 0.00 83 1018.5
20260906035004 22 90 0.0 3.2 0.00 0.00 0.00 83 1018.5
20260906034903 22 90 0.0 3.2 0.00 0.00 0.00 82 1018.5
20260906034817 22 90 0.0 3.2 0.00 0.00 0.00 82 1018.5
20260906034704 22 90 0.0 3.2 0.00 0.00 0.00 82 1018.6
20260906034604 22 90 0.0 3.2 0.00 0.00 0.00 82 1018.6
20260906034503 22 0 0.0 1.6 0.00 0.00 0.00 82 1018.5
20260906034404 22 0 0.0 1.6 0.00 0.00 0.00 82 1018.6
20260906034304 22 0 0.0 1.6 0.00 0.00 0.00 82 1018.5
20260906034204 22 0 0.0 1.6 0.00 0.00 0.00 82 1018.5
20260906034104 22 0 0.0 1.6 0.00 0.00 0.00 82 1018.6
20260906034018 22 0 0.0 1.6 0.00 0.00 0.00 82 1018.5
20260906033903 22 0 0.0 1.6 0.00 0.00 0.00 82 1018.5
20260906033803 22 0 0.0 0.0 0.00 0.00 0.00 82 1018.6
20260906033703 22 0 0.0 0.0 0.00 0.00 0.00 82 1018.5
20260906033618 22 0 0.0 0.0 0.00 0.00 0.00 82 1018.5
20260906033503 22 0 0.0 0.0 0.00 0.00 0.00 81 1018.6
20260906033404 22 0 0.0 0.0 0.00 0.00 0.00 81 1018.6
20260906033304 22 0 0.0 0.0 0.00 0.00 0.00 81 1018.6
20260906033218 22 0 0.0 0.0 0.00 0.00 0.00 81 1018.6
20260906033103 22 0 0.0 0.0 0.00 0.00 0.00 81 1018.6
20260906033017 22 0 0.0 0.0 0.00 0.00 0.00 81 1018.6
20260906032903 22 0 0.0 0.0 0.00 0.00 0.00 81 1018.6
20260906032803 22 0 0.0 0.0 0.00 0.00 0.00 81 1018.6
20260906032704 23 0 0.0 0.0 0.00 0.00 0.00 81 1018.6
20260906032618 23 0 0.0 0.0 0.00 0.00 0.00 81 1018.6
20260906032503 23 0 0.0 0.0 0.00 0.00 0.00 81 1018.6
20260906032403 23 0 0.0 0.0 0.00 0.00 0.00 81 1018.7
20260906032318 23 80 0.0 0.0 0.00 0.00 0.00 81 1018.7
20260906032204 23 80 0.0 0.0 0.00 0.00 0.00 81 1018.6
20260906032103 23 80 0.0 1.6 0.00 0.00 0.00 80 1018.6
20260906032004 23 79 0.0 1.6 0.00 0.00 0.00 80 1018.6
20260906031904 23 86 0.0 1.6 0.00 0.00 0.00 80 1018.6
20260906031803 23 86 0.0 3.2 0.00 0.00 0.00 80 1018.6
20260906031717 23 86 0.0 3.2 0.00 0.00 0.00 80 1018.6
20260906031604 23 86 0.0 3.2 0.00 0.00 0.00 80 1018.6
20260906031503 23 88 0.0 3.2 0.00 0.00 0.00 80 1018.6
20260906031418 23 88 0.0 3.2 0.00 0.00 0.00 80 1018.7
20260906031303 23 92 0.0 3.2 0.00 0.00 0.00 80 1018.6
20260906031204 23 92 0.0 3.2 0.00 0.00 0.00 80 1018.7
20260906031104 23 92 0.0 3.2 0.00 0.00 0.00 80 1018.7
20260906031004 23 98 0.0 3.2 0.00 0.00 0.00 80 1018.7
20260906030904 23 98 0.0 3.2 0.00 0.00 0.00 80 1018.7
20260906030803 23 98 0.0 3.2 0.00 0.00 0.00 80 1018.8
20260906030703 23 98 0.0 1.6 0.00 0.00 0.00 80 1018.8
20260906030604 23 98 0.0 1.6 0.00 0.00 0.00 80 1018.8
20260906030504 23 98 0.0 1.6 0.00 0.00 0.00 80 1018.8
20260906030404 23 98 0.0 1.6 0.00 0.00 0.00 80 1018.8
20260906030303 23 0 0.0 0.0 0.00 0.00 0.00 80 1018.9
20260906030203 23 0 0.0 0.0 0.00 0.00 0.00 79 1018.8
20260906030104 23 0 0.0 0.0 0.00 0.00 0.00 79 1018.9
20260906030004 23 0 0.0 0.0 0.00 0.00 0.00 79 1018.8
20260906025904 23 0 0.0 0.0 0.00 0.00 0.00 79 1018.8
20260906025803 23 0 0.0 0.0 0.00 0.00 0.00 79 1018.8
20260906025704 23 0 0.0 0.0 0.00 0.00 0.00 79 1018.8
20260906025604 23 0 0.0 0.0 0.00 0.00 0.00 79 1018.8
20260906025503 23 0 0.0 0.0 0.00 0.00 0.00 79 1018.8
20260906025403 23 0 0.0 0.0 0.00 0.00 0.00 79 1018.8
20260906025317 23 0 0.0 0.0 0.00 0.00 0.00 79 1018.8
20260906025203 23 0 0.0 0.0 0.00 0.00 0.00 79 1018.7
20260906025104 23 0 0.0 0.0 0.00 0.00 0.00 79 1018.7
20260906025003 23 0 0.0 0.0 0.00 0.00 0.00 79 1018.7
20260906024904 23 0 0.0 0.0 0.00 0.00 0.00 79 1018.6
20260906024804 23 0 0.0 0.0 0.00 0.00 0.00 79 1018.6
20260906024704 23 0 0.0 0.0 0.00 0.00 0.00 78 1018.7
20260906024603 23 0 0.0 0.0 0.00 0.00 0.00 78 1018.6
20260906024518 23 0 0.0 0.0 0.00 0.00 0.00 78 1018.6
20260906024418 23 0 0.0 0.0 0.00 0.00 0.00 78 1018.6
20260906024303 23 0 0.0 0.0 0.00 0.00 0.00 78 1018.6
20260906024203 23 0 0.0 0.0 0.00 0.00 0.00 78 1018.6
20260906024104 23 0 0.0 0.0 0.00 0.00 0.00 78 1018.6
20260906024003 23 0 0.0 3.2 0.00 0.00 0.00 78 1018.6
20260906023904 23 180 0.0 3.2 0.00 0.00 0.00 78 1018.5
20260906023818 23 180 0.0 3.2 0.00 0.00 0.00 78 1018.5
20260906023717 23 180 0.0 3.2 0.00 0.00 0.00 78 1018.5
20260906023604 23 180 0.0 3.2 0.00 0.00 0.00 78 1018.4
20260906023503 23 180 0.0 3.2 0.00 0.00 0.00 78 1018.3
20260906023403 23 180 0.0 3.2 0.00 0.00 0.00 78 1018.4
20260906023304 23 180 0.0 3.2 0.00 0.00 0.00 78 1018.3
20260906023204 23 180 0.0 3.2 0.00 0.00 0.00 78 1018.3
20260906023104 23 180 0.0 3.2 0.00 0.00 0.00 78 1018.2
20260906023003 23 180 0.0 3.2 0.00 0.00 0.00 78 1018.3
20260906022904 23 0 0.0 3.2 0.00 0.00 0.00 77 1018.2
20260906022804 23 0 0.0 3.2 0.00 0.00 0.00 77 1018.3
20260906022704 23 0 0.0 0.0 0.00 0.00 0.00 77 1018.3
20260906022603 23 0 0.0 0.0 0.00 0.00 0.00 77 1018.3
20260906022503 23 0 0.0 0.0 0.00 0.00 0.00 77 1018.2
20260906022404 23 0 0.0 0.0 0.00 0.00 0.00 77 1018.2
20260906022306 23 0 0.0 0.0 0.00 0.00 0.00 77 1018.2
20260906022203 23 0 0.0 0.0 0.00 0.00 0.00 77 1018.2
20260906022104 23 0 0.0 0.0 0.00 0.00 0.00 77 1018.2
20260906022004 24 0 0.0 0.0 0.00 0.00 0.00 77 1018.2
20260906021903 24 0 0.0 0.0 0.00 0.00 0.00 77 1018.2
20260906021803 24 0 0.0 0.0 0.00 0.00 0.00 77 1018.1
20260906021704 24 0 0.0 0.0 0.00 0.00 0.00 77 1018.1
20260906021603 24 0 0.0 0.0 0.00 0.00 0.00 76 1018.1
20260906021504 24 0 0.0 0.0 0.00 0.00 0.00 76 1018.0
20260906021403 24 0 0.0 1.6 0.00 0.00 0.00 76 1017.9
20260906021304 24 187 0.0 3.2 0.00 0.00 0.00 76 1017.9
20260906021218 24 187 0.0 3.2 0.00 0.00 0.00 76 1017.8
20260906021103 24 187 0.0 3.2 0.00 0.00 0.00 76 1017.8
20260906021004 24 182 0.0 3.2 0.00 0.00 0.00 76 1017.7
20260906020903 24 182 0.0 3.2 0.00 0.00 0.00 76 1017.6
20260906020804 24 182 0.0 3.2 0.00 0.00 0.00 76 1017.6
20260906020704 24 180 0.0 3.2 0.00 0.00 0.00 76 1017.5
20260906020603 24 180 0.0 3.2 0.00 0.00 0.00 76 1017.5
20260906020503 24 180 1.6 3.2 0.00 0.00 0.00 76 1017.4
20260906020418 24 180 1.6 3.2 0.00 0.00 0.00 76 1017.4
20260906020304 24 177 1.6 3.2 0.00 0.00 0.00 76 1017.3
20260906020218 24 171 1.6 6.4 0.00 0.00 0.00 76 1017.3
20260906020103 24 171 1.6 6.4 0.00 0.00 0.00 76 1017.3
20260906020004 24 173 1.6 6.4 0.00 0.00 0.00 76 1017.3
20260906015903 24 174 1.6 6.4 0.00 0.00 0.00 76 1017.3
20260906015817 24 172 1.6 6.4 0.00 0.00 0.00 75 1017.2
20260906015704 24 174 1.6 6.4 0.00 0.00 0.00 75 1017.2
20260906015604 24 173 1.6 6.4 0.00 0.00 0.00 75 1017.2
20260906015504 24 173 3.2 6.4 0.00 0.00 0.00 75 1017.2
20260906015403 24 173 3.2 6.4 0.00 0.00 0.00 75 1017.1
20260906015317 24 174 3.2 6.4 0.00 0.00 0.00 75 1017.1
20260906015203 24 176 1.6 6.4 0.00 0.00 0.00 75 1017.1
20260906015104 24 175 3.2 12.9 0.00 0.00 0.00 75 1017.1
20260906015004 24 175 3.2 12.9 0.00 0.00 0.00 75 1017.1
20260906014903 24 174 3.2 12.9 0.00 0.00 0.00 75 1017.0
20260906014803 24 174 3.2 12.9 0.00 0.00 0.00 75 1017.0
20260906014704 24 169 3.2 12.9 0.00 0.00 0.00 75 1016.9
20260906014604 25 166 4.8 12.9 0.00 0.00 0.00 75 1016.9
20260906014503 25 164 4.8 12.9 0.00 0.00 0.00 75 1016.9
20260906014403 25 161 4.8 12.9 0.00 0.00 0.00 75 1016.9
20260906014304 25 158 4.8 12.9 0.00 0.00 0.00 75 1016.8
20260906014204 25 158 4.8 12.9 0.00 0.00 0.00 75 1016.8
20260906014103 25 159 4.8 12.9 0.00 0.00 0.00 75 1016.8
20260906014018 25 157 4.8 11.3 0.00 0.00 0.00 75 1016.8
20260906013903 25 153 3.2 11.3 0.00 0.00 0.00 75 1016.8
20260906013804 25 151 4.8 11.3 0.00 0.00 0.00 75 1016.7
20260906013703 25 151 4.8 11.3 0.00 0.00 0.00 75 1016.7
20260906013604 25 150 4.8 11.3 0.00 0.00 0.00 75 1016.7
20260906013504 25 153 3.2 11.3 0.00 0.00 0.00 75 1016.6
20260906013417 25 157 3.2 9.7 0.00 0.00 0.00 74 1016.7
20260906013303 25 160 4.8 12.9 0.00 0.00 0.00 74 1016.7
20260906013203 25 154 6.4 12.9 0.00 0.00 0.00 74 1016.6
20260906013118 25 153 6.4 12.9 0.00 0.00 0.00 74 1016.6
20260906013017 25 151 6.4 12.9 0.00 0.00 0.00 74 1016.6
20260906012904 25 151 6.4 12.9 0.00 0.00 0.00 74 1016.6
20260906012804 25 151 6.4 12.9 0.00 0.00 0.00 74 1016.6
20260906012703 25 155 6.4 12.9 0.00 0.00 0.00 74 1016.6
20260906012603 25 157 6.4 12.9 0.00 0.00 0.00 74 1016.6
20260906012517 25 154 6.4 12.9 0.00 0.00 0.00 74 1016.5
20260906012418 25 155 6.4 12.9 0.00 0.00 0.00 74 1016.6
20260906012306 25 157 6.4 12.9 0.00 0.00 0.00 74 1016.6
20260906012203 25 165 4.8 12.9 0.00 0.00 0.00 74 1016.6
20260906012103 25 169 4.8 11.3 0.00 0.00 0.00 74 1016.5
20260906012004 25 172 4.8 11.3 0.00 0.00 0.00 74 1016.6
20260906011903 25 176 4.8 11.3 0.00 0.00 0.00 74 1016.6
20260906011803 25 182 4.8 11.3 0.00 0.00 0.00 74 1016.6
20260906011704 25 180 4.8 11.3 0.00 0.00 0.00 74 1016.6
20260906011618 25 178 3.2 11.3 0.00 0.00 0.00 74 1016.5
20260906011503 25 183 3.2 11.3 0.00 0.00 0.00 74 1016.6
20260906011403 25 180 3.2 11.3 0.00 0.00 0.00 74 1016.5
20260906011304 25 174 3.2 11.3 0.00 0.00 0.00 74 1016.5
20260906011203 25 169 3.2 9.7 0.00 0.00 0.00 73 1016.5
20260906011118 25 165 3.2 9.7 0.00 0.00 0.00 73 1016.4
20260906011004 25 164 3.2 9.7 0.00 0.00 0.00 73 1016.4
20260906010917 25 161 3.2 9.7 0.00 0.00 0.00 73 1016.4
20260906010803 25 160 3.2 9.7 0.00 0.00 0.00 73 1016.4
20260906010703 25 158 3.2 9.7 0.00 0.00 0.00 73 1016.3
20260906010604 25 158 3.2 9.7 0.00 0.00 0.00 73 1016.3
20260906010503 25 161 4.8 9.7 0.00 0.00 0.00 73 1016.2
20260906010404 25 158 4.8 9.7 0.00 0.00 0.00 73 1016.2
20260906010303 25 156 4.8 9.7 0.00 0.00 0.00 72 1016.2
20260906010204 25 154 3.2 8.0 0.00 0.00 0.00 72 1016.1
20260906010118 25 154 3.2 8.0 0.00 0.00 0.00 72 1016.1
20260906010004 25 153 3.2 8.0 0.00 0.00 0.00 72 1016.1
20260906005918 25 151 3.2 8.0 0.00 0.00 0.00 72 1016.1
20260906005803 25 146 3.2 8.0 0.00 0.00 0.00 72 1016.1
20260906005704 25 143 3.2 8.0 0.00 0.00 0.00 71 1016.1
20260906005603 25 142 3.2 8.0 0.00 0.00 0.00 71 1016.1
20260906005503 25 130 3.2 9.7 0.00 0.00 0.00 71 1016.0
20260906005403 25 130 3.2 9.7 0.00 0.00 0.00 71 1016.0
20260906005306 25 132 3.2 9.7 0.00 0.00 0.00 71 1016.0
20260906005203 25 128 3.2 9.7 0.00 0.00 0.00 71 1016.0
20260906005103 25 130 3.2 9.7 0.00 0.00 0.00 71 1016.0
20260906005004 25 126 3.2 9.7 0.00 0.00 0.00 71 1016.0
20260906004904 25 122 3.2 9.7 0.00 0.00 0.00 70 1015.9
20260906004803 25 123 3.2 9.7 0.00 0.00 0.00 70 1016.0
20260906004717 26 122 3.2 9.7 0.00 0.00 0.00 70 1015.9
20260906004604 26 120 4.8 12.9 0.00 0.00 0.00 70 1015.9
20260906004504 26 124 6.4 16.1 0.00 0.00 0.00 70 1015.9
20260906004404 26 119 6.4 16.1 0.00 0.00 0.00 70 1015.8
20260906004304 26 118 6.4 16.1 0.00 0.00 0.00 70 1015.8
20260906004204 26 117 6.4 16.1 0.00 0.00 0.00 70 1015.8
20260906004105 26 114 6.4 16.1 0.00 0.00 0.00 70 1015.8
20260906004004 26 114 6.4 16.1 0.00 0.00 0.00 70 1015.8
20260906003918 26 117 6.4 16.1 0.00 0.00 0.00 70 1015.9
20260906003804 26 117 6.4 16.1 0.00 0.00 0.00 70 1015.9
20260906003704 26 119 6.4 16.1 0.00 0.00 0.00 69 1015.9
20260906003604 26 124 6.4 16.1 0.00 0.00 0.00 69 1015.9
20260906003504 26 119 4.8 16.1 0.00 0.00 0.00 69 1015.9
20260906003403 26 120 4.8 17.7 0.00 0.00 0.00 69 1015.9
20260906003304 26 123 6.4 17.7 0.00 0.00 0.00 69 1015.9
20260906003204 26 119 6.4 17.7 0.00 0.00 0.00 69 1015.9
20260906003104 26 126 6.4 17.7 0.00 0.00 0.00 69 1015.9
20260906003003 26 125 6.4 17.7 0.00 0.00 0.00 69 1015.9
20260906002917 26 124 6.4 17.7 0.00 0.00 0.00 69 1015.9
20260906002803 26 123 6.4 17.7 0.00 0.00 0.00 69 1015.9
20260906002704 26 121 6.4 17.7 0.00 0.00 0.00 68 1015.9
20260906002603 26 115 6.4 17.7 0.00 0.00 0.00 68 1015.9
20260906002504 26 116 6.4 17.7 0.00 0.00 0.00 68 1015.9
20260906002403 26 116 6.4 17.7 0.00 0.00 0.00 68 1015.9
20260906002306 26 112 6.4 16.1 0.00 0.00 0.00 68 1015.9
20260906002204 26 111 4.8 16.1 0.00 0.00 0.00 68 1015.9
20260906002104 26 98 4.8 14.5 0.00 0.00 0.00 68 1015.9
20260906002004 26 98 4.8 14.5 0.00 0.00 0.00 68 1015.9
20260906001904 26 87 4.8 14.5 0.00 0.00 0.00 68 1015.9
20260906001804 26 87 4.8 14.5 0.00 0.00 0.00 68 1015.9
20260906001718 26 89 4.8 14.5 0.00 0.00 0.00 68 1016.0
20260906001604 26 86 4.8 14.5 0.00 0.00 0.00 68 1016.0
20260906001504 26 82 4.8 14.5 0.00 0.00 0.00 67 1016.0
20260906001403 26 83 6.4 14.5 0.00 0.00 0.00 67 1016.0
20260906001303 26 82 6.4 14.5 0.00 0.00 0.00 67 1016.1
20260906001204 26 80 4.8 14.5 0.00 0.00 0.00 67 1016.1
20260906001104 26 80 4.8 9.7 0.00 0.00 0.00 67 1016.1
20260906001018 27 78 4.8 9.7 0.00 0.00 0.00 67 1016.2
20260906000905 27 79 6.4 12.9 0.00 0.00 0.00 67 1016.2
20260906000819 27 78 6.4 12.9 0.00 0.00 0.00 67 1016.2
20260906000705 27 73 6.4 12.9 0.00 0.00 0.00 67 1016.2
20260906000605 27 76 6.4 12.9 0.00 0.00 0.00 67 1016.2
20260906000503 27 77 4.8 12.9 0.00 0.00 0.00 67 1016.2
20260906000405 27 77 4.8 12.9 0.00 0.00 0.00 67 1016.2
20260906000305 27 76 4.8 12.9 0.00 0.00 0.00 67 1016.2
20260906000205 27 80 4.8 12.9 0.00 0.00 0.00 66 1016.1
20260906000104 27 76 6.4 12.9 0.00 0.00 0.00 66 1016.1
20260906000004 27 78 6.4 12.9 0.00 0.00 0.00 66 1016.1
20260905235904 27 79 4.8 12.9 0.00 0.00 0.00 66 1016.1
20260905235817 27 78 4.8 11.3 0.00 0.00 0.00 66 1016.0
20260905235703 27 80 4.8 11.3 0.00 0.00 0.00 66 1016.0
20260905235603 27 81 4.8 11.3 0.00 0.00 0.00 66 1016.0
20260905235504 27 85 4.8 11.3 0.00 0.00 0.00 66 1015.9
20260905235403 27 82 4.8 11.3 0.00 0.00 0.00 66 1015.9
20260905235306 27 84 4.8 11.3 0.00 0.00 0.00 66 1015.8
20260905235204 27 84 4.8 11.3 0.00 0.00 0.00 66 1015.8
20260905235118 27 88 4.8 11.3 0.00 0.00 0.00 66 1015.8
20260905235004 27 93 4.8 9.7 0.00 0.00 0.00 66 1015.7
20260905234904 27 99 4.8 9.7 0.00 0.00 0.00 66 1015.7
20260905234803 27 97 4.8 9.7 0.00 0.00 0.00 66 1015.7
20260905234704 27 91 4.8 9.7 0.00 0.00 0.00 66 1015.7
20260905234618 27 95 3.2 6.4 0.00 0.00 0.00 66 1015.6
20260905234503 27 95 3.2 6.4 0.00 0.00 0.00 65 1015.6
20260905234404 27 100 4.8 19.3 0.00 0.00 0.00 65 1015.6
20260905234303 27 95 4.8 19.3 0.00 0.00 0.00 65 1015.6
20260905234203 27 105 4.8 19.3 0.00 0.00 0.00 65 1015.6
20260905234103 27 111 4.8 19.3 0.00 0.00 0.00 65 1015.6
20260905234003 27 109 4.8 19.3 0.00 0.00 0.00 65 1015.6
20260905233903 27 112 4.8 19.3 0.00 0.00 0.00 65 1015.7
20260905233803 27 111 6.4 19.3 0.00 0.00 0.00 64 1015.6
20260905233703 27 105 6.4 19.3 0.00 0.00 0.00 64 1015.6
20260905233603 27 95 6.4 19.3 0.00 0.00 0.00 64 1015.6
20260905233517 27 89 6.4 19.3 0.00 0.00 0.00 64 1015.6
20260905233403 27 88 6.4 19.3 0.00 0.00 0.00 64 1015.5
20260905233303 27 91 8.0 20.9 0.00 0.00 0.00 64 1015.5
20260905233204 28 71 6.4 20.9 0.00 0.00 0.00 64 1015.5
20260905233104 28 70 6.4 20.9 0.00 0.00 0.00 64 1015.4
20260905233018 28 71 8.0 20.9 0.00 0.00 0.00 64 1015.4
20260905232904 28 67 8.0 20.9 0.00 0.00 0.00 64 1015.4
20260905232817 28 67 8.0 20.9 0.00 0.00 0.00 63 1015.4
20260905232703 28 71 6.4 20.9 0.00 0.00 0.00 63 1015.4
20260905232617 28 73 6.4 20.9 0.00 0.00 0.00 63 1015.3
20260905232518 28 79 6.4 20.9 0.00 0.00 0.00 63 1015.4
20260905232418 28 79 6.4 20.9 0.00 0.00 0.00 63 1015.3
20260905232306 28 80 8.0 20.9 0.00 0.00 0.00 63 1015.4
20260905232203 28 89 6.4 20.9 0.00 0.00 0.00 63 1015.3
20260905232117 28 88 6.4 20.9 0.00 0.00 0.00 63 1015.4
20260905232003 28 84 6.4 20.9 0.00 0.00 0.00 63 1015.3
20260905231903 28 90 6.4 20.9 0.00 0.00 0.00 63 1015.4
20260905231803 28 88 8.0 20.9 0.00 0.00 0.00 63 1015.3
20260905231703 28 98 8.0 20.9 0.00 0.00 0.00 63 1015.3
20260905231603 28 99 8.0 20.9 0.00 0.00 0.00 62 1015.3
20260905231503 28 100 8.0 20.9 0.00 0.00 0.00 62 1015.2
20260905231403 28 103 8.0 20.9 0.00 0.00 0.00 62 1015.3
20260905231304 28 106 8.0 20.9 0.00 0.00 0.00 62 1015.3
20260905231203 28 123 8.0 19.3 0.00 0.00 0.00 62 1015.3
20260905231103 28 123 8.0 19.3 0.00 0.00 0.00 62 1015.3
20260905231004 28 130 8.0 19.3 0.00 0.00 0.00 62 1015.3
20260905230918 28 128 8.0 19.3 0.00 0.00 0.00 62 1015.3
20260905230804 28 133 8.0 19.3 0.00 0.00 0.00 62 1015.3
20260905230703 28 131 8.0 19.3 0.00 0.00 0.00 61 1015.4
20260905230603 28 133 8.0 19.3 0.00 0.00 0.00 61 1015.4
20260905230504 28 132 8.0 19.3 0.00 0.00 0.00 61 1015.4
20260905230403 28 134 8.0 19.3 0.00 0.00 0.00 61 1015.5
20260905230303 28 134 8.0 19.3 0.00 0.00 0.00 61 1015.4
20260905230203 28 126 6.4 19.3 0.00 0.00 0.00 61 1015.5
20260905230103 28 125 6.4 17.7 0.00 0.00 0.00 61 1015.5
20260905230017 28 119 6.4 17.7 0.00 0.00 0.00 61 1015.5
20260905225903 28 117 6.4 17.7 0.00 0.00 0.00 61 1015.5
20260905225803 28 116 8.0 17.7 0.00 0.00 0.00 60 1015.5
20260905225704 28 118 8.0 17.7 0.00 0.00 0.00 60 1015.5
20260905225603 28 117 6.4 17.7 0.00 0.00 0.00 60 1015.4
20260905225517 28 121 8.0 17.7 0.00 0.00 0.00 60 1015.5
20260905225403 28 102 8.0 17.7 0.00 0.00 0.00 60 1015.5
20260905225305 28 91 6.4 16.1 0.00 0.00 0.00 60 1015.4
20260905225204 28 89 6.4 16.1 0.00 0.00 0.00 60 1015.5
20260905225103 28 97 8.0 16.1 0.00 0.00 0.00 60 1015.5
20260905225004 28 98 8.0 16.1 0.00 0.00 0.00 59 1015.5
20260905224903 28 105 8.0 16.1 0.00 0.00 0.00 60 1015.5
20260905224803 28 94 8.0 16.1 0.00 0.00 0.00 60 1015.6
20260905224703 28 93 8.0 16.1 0.00 0.00 0.00 60 1015.5
20260905224618 28 90 8.0 16.1 0.00 0.00 0.00 61 1015.5
20260905224504 28 94 8.0 16.1 0.00 0.00 0.00 60 1015.5
20260905224404 28 115 6.4 16.1 0.00 0.00 0.00 60 1015.6
20260905224304 28 115 6.4 12.9 0.00 0.00 0.00 60 1015.6
20260905224203 28 111 6.4 12.9 0.00 0.00 0.00 60 1015.5
20260905224104 28 107 6.4 12.9 0.00 0.00 0.00 60 1015.6
20260905224003 28 113 6.4 16.1 0.00 0.00 0.00 61 1015.5
20260905223903 28 103 6.4 16.1 0.00 0.00 0.00 61 1015.5
20260905223803 28 108 8.0 16.1 0.00 0.00 0.00 61 1015.5
20260905223703 28 92 8.0 16.1 0.00 0.00 0.00 61 1015.5
20260905223604 28 86 8.0 16.1 0.00 0.00 0.00 61 1015.5
20260905223503 28 80 8.0 16.1 0.00 0.00 0.00 61 1015.6
20260905223403 28 69 8.0 16.1 0.00 0.00 0.00 61 1015.5
20260905223317 28 63 8.0 16.1 0.00 0.00 0.00 61 1015.5
20260905223204 28 57 8.0 16.1 0.00 0.00 0.00 61 1015.4
20260905223103 28 54 6.4 16.1 0.00 0.00 0.00 61 1015.4
20260905223003 28 47 6.4 16.1 0.00 0.00 0.00 61 1015.5
20260905222917 28 48 6.4 14.5 0.00 0.00 0.00 61 1015.5
20260905222803 28 42 6.4 14.5 0.00 0.00 0.00 62 1015.5
20260905222703 28 50 6.4 9.7 0.00 0.00 0.00 62 1015.5
20260905222604 28 55 4.8 9.7 0.00 0.00 0.00 62 1015.5
20260905222518 28 55 6.4 17.7 0.00 0.00 0.00 62 1015.4
20260905222403 28 59 8.0 17.7 0.00 0.00 0.00 62 1015.4
20260905222306 28 62 8.0 17.7 0.00 0.00 0.00 62 1015.4
20260905222203 28 72 8.0 17.7 0.00 0.00 0.00 63 1015.4
20260905222103 28 85 9.7 17.7 0.00 0.00 0.00 63 1015.4
20260905222004 28 94 11.3 17.7 0.00 0.00 0.00 63 1015.4
20260905221903 28 97 11.3 17.7 0.00 0.00 0.00 63 1015.4
20260905221804 28 105 11.3 17.7 0.00 0.00 0.00 63 1015.4
20260905221703 28 109 11.3 17.7 0.00 0.00 0.00 63 1015.4
20260905221603 28 111 11.3 17.7 0.00 0.00 0.00 63 1015.4
20260905221504 28 109 11.3 17.7 0.00 0.00 0.00 63 1015.4
20260905221404 28 117 9.7 16.1 0.00 0.00 0.00 63 1015.4
20260905221304 28 118 9.7 16.1 0.00 0.00 0.00 63 1015.4
20260905221204 28 116 9.7 16.1 0.00 0.00 0.00 63 1015.4
20260905221103 28 108 9.7 16.1 0.00 0.00 0.00 62 1015.4
20260905221003 28 103 8.0 16.1 0.00 0.00 0.00 62 1015.4
20260905220903 28 99 8.0 14.5 0.00 0.00 0.00 62 1015.4
20260905220804 28 95 6.4 14.5 0.00 0.00 0.00 63 1015.4
20260905220703 28 89 6.4 19.3 0.00 0.00 0.00 64 1015.4
20260905220617 28 84 6.4 19.3 0.00 0.00 0.00 64 1015.4
20260905220504 28 83 6.4 19.3 0.00 0.00 0.00 64 1015.5
20260905220404 28 71 6.4 19.3 0.00 0.00 0.00 63 1015.5
20260905220303 28 72 6.4 19.3 0.00 0.00 0.00 64 1015.6
20260905220203 28 69 6.4 19.3 0.00 0.00 0.00 64 1015.5
20260905220103 28 70 8.0 19.3 0.00 0.00 0.00 64 1015.5
20260905220003 28 74 8.0 19.3 0.00 0.00 0.00 64 1015.6
20260905215903 28 75 8.0 19.3 0.00 0.00 0.00 64 1015.5
20260905215803 28 71 8.0 19.3 0.00 0.00 0.00 64 1015.5
20260905215703 28 78 6.4 19.3 0.00 0.00 0.00 64 1015.5
20260905215618 28 81 6.4 12.9 0.00 0.00 0.00 64 1015.4
20260905215503 28 88 8.0 22.5 0.00 0.00 0.00 64 1015.5
20260905215403 28 86 9.7 22.5 0.00 0.00 0.00 64 1015.4
20260905215306 28 81 8.0 22.5 0.00 0.00 0.00 64 1015.5
20260905215204 28 85 9.7 22.5 0.00 0.00 0.00 63 1015.5
20260905215117 28 81 8.0 22.5 0.00 0.00 0.00 63 1015.6
20260905215003 28 74 8.0 22.5 0.00 0.00 0.00 63 1015.5
20260905214903 28 71 8.0 22.5 0.00 0.00 0.00 63 1015.5
20260905214817 28 70 8.0 22.5 0.00 0.00 0.00 63 1015.5
20260905214703 28 64 8.0 22.5 0.00 0.00 0.00 63 1015.5
20260905214603 28 59 8.0 22.5 0.00 0.00 0.00 63 1015.5
20260905214517 28 52 6.4 22.5 0.00 0.00 0.00 64 1015.5
20260905214417 28 42 8.0 22.5 0.00 0.00 0.00 64 1015.4
20260905214304 28 39 8.0 22.5 0.00 0.00 0.00 64 1015.4
20260905214205 28 38 8.0 22.5 0.00 0.00 0.00 64 1015.3
20260905214103 28 33 9.7 22.5 0.00 0.00 0.00 65 1015.3
20260905214003 28 30 9.7 22.5 0.00 0.00 0.00 64 1015.3
20260905213904 28 29 9.7 22.5 0.00 0.00 0.00 64 1015.3
20260905213803 28 32 9.7 22.5 0.00 0.00 0.00 64 1015.3
20260905213703 28 30 9.7 22.5 0.00 0.00 0.00 64 1015.3
20260905213618 28 29 11.3 22.5 0.00 0.00 0.00 64 1015.3
20260905213504 28 33 11.3 22.5 0.00 0.00 0.00 64 1015.4
20260905213403 28 40 11.3 22.5 0.00 0.00 0.00 64 1015.3
20260905213304 28 42 12.9 20.9 0.00 0.00 0.00 64 1015.4
20260905213218 28 41 12.9 20.9 0.00 0.00 0.00 64 1015.4
20260905213103 28 49 12.9 20.9 0.00 0.00 0.00 64 1015.4
20260905213018 28 48 12.9 20.9 0.00 0.00 0.00 65 1015.5
20260905212903 28 51 12.9 20.9 0.00 0.00 0.00 65 1015.5
20260905212803 28 51 12.9 20.9 0.00 0.00 0.00 65 1015.6
20260905212717 28 52 12.9 20.9 0.00 0.00 0.00 65 1015.6
20260905212605 28 54 12.9 20.9 0.00 0.00 0.00 65 1015.7
20260905212504 28 53 12.9 20.9 0.00 0.00 0.00 65 1015.7
20260905212403 28 53 11.3 20.9 0.00 0.00 0.00 65 1015.7
20260905212306 28 56 11.3 17.7 0.00 0.00 0.00 65 1015.8
20260905212204 28 66 9.7 17.7 0.00 0.00 0.00 65 1015.9
20260905212104 28 60 9.7 17.7 0.00 0.00 0.00 65 1015.9
20260905212018 28 76 8.0 17.7 0.00 0.00 0.00 65 1015.9
20260905211905 28 80 6.4 14.5 0.00 0.00 0.00 66 1015.9
20260905211804 28 81 6.4 14.5 0.00 0.00 0.00 66 1016.0
20260905211703 28 81 6.4 12.9 0.00 0.00 0.00 66 1015.9
20260905211603 28 72 8.0 17.7 0.00 0.00 0.00 66 1016.1
20260905211503 28 72 8.0 17.7 0.00 0.00 0.00 66 1016.0
20260905211403 28 63 8.0 17.7 0.00 0.00 0.00 66 1016.1
20260905211303 28 60 8.0 17.7 0.00 0.00 0.00 66 1016.1
20260905211205 28 51 8.0 17.7 0.00 0.00 0.00 66 1016.1
20260905211103 28 51 8.0 17.7 0.00 0.00 0.00 66 1016.2
20260905211003 28 45 8.0 17.7 0.00 0.00 0.00 66 1016.3
20260905210903 28 44 9.7 17.7 0.00 0.00 0.00 66 1016.3
20260905210803 28 50 9.7 17.7 0.00 0.00 0.00 66 1016.4
20260905210704 28 52 9.7 17.7 0.00 0.00 0.00 66 1016.5
20260905210603 28 62 8.0 17.7 0.00 0.00 0.00 66 1016.5
20260905210517 28 68 8.0 16.1 0.00 0.00 0.00 65 1016.5
20260905210403 28 72 8.0 16.1 0.00 0.00 0.00 65 1016.6
20260905210303 28 67 8.0 16.1 0.00 0.00 0.00 66 1016.5
20260905210203 28 73 6.4 16.1 0.00 0.00 0.00 66 1016.6
20260905210103 28 71 6.4 16.1 0.00 0.00 0.00 66 1016.6
20260905210003 28 68 6.4 16.1 0.00 0.00 0.00 65 1016.7
20260905205903 28 69 6.4 16.1 0.00 0.00 0.00 65 1016.7
20260905205804 28 65 4.8 11.3 0.00 0.00 0.00 65 1016.7
20260905205704 28 65 4.8 9.7 0.00 0.00 0.00 65 1016.7
20260905205603 28 66 4.8 9.7 0.00 0.00 0.00 65 1016.7
20260905205503 28 51 6.4 14.5 0.00 0.00 0.00 65 1016.7
20260905205403 28 47 6.4 14.5 0.00 0.00 0.00 65 1016.7
20260905205306 28 41 6.4 14.5 0.00 0.00 0.00 65 1016.7
20260905205217 28 39 6.4 14.5 0.00 0.00 0.00 66 1016.7
20260905205103 28 41 6.4 14.5 0.00 0.00 0.00 66 1016.7
20260905205003 28 52 6.4 14.5 0.00 0.00 0.00 66 1016.8
20260905204917 28 50 6.4 14.5 0.00 0.00 0.00 66 1016.7
20260905204817 28 53 6.4 14.5 0.00 0.00 0.00 66 1016.7
20260905204703 28 45 6.4 14.5 0.00 0.00 0.00 66 1016.7
20260905204617 28 39 8.0 14.5 0.00 0.00 0.00 66 1016.7
20260905204503 28 37 6.4 14.5 0.00 0.00 0.00 66 1016.7
20260905204417 28 37 6.4 12.9 0.00 0.00 0.00 66 1016.8
20260905204317 28 44 6.4 12.9 0.00 0.00 0.00 66 1016.7
20260905204217 28 43 6.4 12.9 0.00 0.00 0.00 66 1016.8
20260905204103 28 41 6.4 12.9 0.00 0.00 0.00 66 1016.8
20260905204004 28 39 6.4 12.9 0.00 0.00 0.00 66 1016.8
20260905203903 28 36 4.8 12.9 0.00 0.00 0.00 66 1016.9
20260905203803 28 34 4.8 12.9 0.00 0.00 0.00 66 1016.9
20260905203703 28 42 4.8 12.9 0.00 0.00 0.00 66 1016.9
20260905203604 28 42 4.8 12.9 0.00 0.00 0.00 66 1016.9
20260905203503 28 51 3.2 12.9 0.00 0.00 0.00 66 1016.9
20260905203404 27 63 3.2 6.4 0.00 0.00 0.00 66 1016.9
20260905203303 27 66 4.8 12.9 0.00 0.00 0.00 66 1017.0
20260905203203 27 63 4.8 12.9 0.00 0.00 0.00 66 1016.9
20260905203103 27 62 4.8 12.9 0.00 0.00 0.00 65 1016.9
20260905203017 27 60 4.8 12.9 0.00 0.00 0.00 65 1016.9
20260905202903 27 62 4.8 12.9 0.00 0.00 0.00 65 1016.9
20260905202803 27 63 4.8 12.9 0.00 0.00 0.00 65 1017.0
20260905202717 27 64 4.8 12.9 0.00 0.00 0.00 65 1017.0
20260905202618 27 79 3.2 12.9 0.00 0.00 0.00 66 1016.9
20260905202517 27 81 4.8 12.9 0.00 0.00 0.00 65 1017.1
20260905202403 27 88 3.2 12.9 0.00 0.00 0.00 65 1017.0
20260905202306 27 87 3.2 12.9 0.00 0.00 0.00 66 1017.1
20260905202204 27 111 3.2 11.3 0.00 0.00 0.00 66 1017.1
20260905202103 27 135 4.8 11.3 0.00 0.00 0.00 66 1017.1
20260905202003 27 132 4.8 11.3 0.00 0.00 0.00 66 1017.1
20260905201903 27 125 4.8 11.3 0.00 0.00 0.00 66 1017.1
20260905201803 27 118 4.8 11.3 0.00 0.00 0.00 66 1017.1
20260905201703 27 118 4.8 11.3 0.00 0.00 0.00 66 1017.1
20260905201603 27 105 4.8 11.3 0.00 0.00 0.00 67 1017.1
20260905201504 27 96 4.8 11.3 0.00 0.00 0.00 67 1017.1
20260905201403 27 78 4.8 11.3 0.00 0.00 0.00 66 1017.1
20260905201303 27 75 6.4 11.3 0.00 0.00 0.00 66 1017.1
20260905201203 27 58 4.8 11.3 0.00 0.00 0.00 66 1017.2
20260905201103 27 50 4.8 11.3 0.00 0.00 0.00 66 1017.2
20260905201003 27 46 4.8 9.7 0.00 0.00 0.00 66 1017.1
20260905200917 27 56 4.8 9.7 0.00 0.00 0.00 66 1017.2
20260905200803 27 57 4.8 9.7 0.00 0.00 0.00 66 1017.2
20260905200703 27 57 3.2 9.7 0.00 0.00 0.00 67 1017.2
20260905200603 27 72 4.8 12.9 0.00 0.00 0.00 67 1017.2
20260905200503 27 92 4.8 12.9 0.00 0.00 0.00 67 1017.2
20260905200417 27 113 4.8 12.9 0.00 0.00 0.00 66 1017.3
20260905200317 27 116 4.8 12.9 0.00 0.00 0.00 66 1017.3
20260905200203 27 135 3.2 12.9 0.00 0.00 0.00 66 1017.3
20260905200103 27 130 4.8 12.9 0.00 0.00 0.00 67 1017.4
20260905200004 27 125 3.2 12.9 0.00 0.00 0.00 66 1017.4
20260905195903 27 127 3.2 12.9 0.00 0.00 0.00 66 1017.4
20260905195803 27 120 3.2 12.9 0.00 0.00 0.00 66 1017.4
20260905195704 27 118 4.8 12.9 0.00 0.00 0.00 66 1017.4
20260905195603 27 126 3.2 12.9 0.00 0.00 0.00 66 1017.4
20260905195503 27 119 4.8 14.5 0.00 0.00 0.00 68 1017.4
20260905195417 27 96 4.8 14.5 0.00 0.00 0.00 67 1017.4
20260905195317 27 98 4.8 14.5 0.00 0.00 0.00 67 1017.4
20260905195203 27 95 4.8 14.5 0.00 0.00 0.00 67 1017.4
20260905195103 27 103 4.8 14.5 0.00 0.00 0.00 68 1017.4
20260905195004 27 105 4.8 14.5 0.00 0.00 0.00 68 1017.4
20260905194903 27 107 6.4 14.5 0.00 0.00 0.00 68 1017.4
20260905194804 27 109 6.4 14.5 0.00 0.00 0.00 68 1017.4
20260905194703 27 112 6.4 14.5 0.00 0.00 0.00 68 1017.4
20260905194604 27 102 4.8 14.5 0.00 0.00 0.00 67 1017.4
20260905194503 27 96 4.8 14.5 0.00 0.00 0.00 68 1017.5
20260905194405 27 105 3.2 9.7 0.00 0.00 0.00 68 1017.5
20260905194303 27 98 4.8 9.7 0.00 0.00 0.00 68 1017.5
20260905194217 27 84 4.8 9.7 0.00 0.00 0.00 68 1017.5
20260905194103 27 75 4.8 9.7 0.00 0.00 0.00 68 1017.4
20260905194003 27 68 6.4 9.7 0.00 0.00 0.00 68 1017.4
20260905193903 27 53 6.4 9.7 0.00 0.00 0.00 69 1017.4
20260905193803 27 48 4.8 9.7 0.00 0.00 0.00 68 1017.4
20260905193703 27 48 4.8 9.7 0.00 0.00 0.00 68 1017.4
20260905193617 27 49 4.8 9.7 0.00 0.00 0.00 67 1017.4
20260905193517 27 52 4.8 9.7 0.00 0.00 0.00 67 1017.4
20260905193403 27 62 4.8 9.7 0.00 0.00 0.00 68 1017.5
20260905193304 27 65 4.8 9.7 0.00 0.00 0.00 68 1017.4
20260905193203 27 73 4.8 9.7 0.00 0.00 0.00 68 1017.4
20260905193103 27 79 4.8 9.7 0.00 0.00 0.00 68 1017.4
20260905193003 27 84 3.2 8.0 0.00 0.00 0.00 68 1017.4
20260905192903 27 101 3.2 6.4 0.00 0.00 0.00 68 1017.4
20260905192817 27 98 3.2 8.0 0.00 0.00 0.00 69 1017.4
20260905192703 27 110 3.2 8.0 0.00 0.00 0.00 69 1017.5
20260905192603 27 111 4.8 8.0 0.00 0.00 0.00 69 1017.4
20260905192517 27 107 4.8 8.0 0.00 0.00 0.00 69 1017.5
20260905192403 27 107 4.8 11.3 0.00 0.00 0.00 69 1017.5
20260905192306 27 97 4.8 11.3 0.00 0.00 0.00 69 1017.5
20260905192218 27 88 4.8 11.3 0.00 0.00 0.00 70 1017.5
20260905192104 27 92 4.8 11.3 0.00 0.00 0.00 70 1017.5
20260905192018 27 100 4.8 11.3 0.00 0.00 0.00 71 1017.5
20260905191903 27 92 4.8 11.3 0.00 0.00 0.00 71 1017.5
20260905191803 27 80 4.8 11.3 0.00 0.00 0.00 71 1017.6
20260905191703 27 60 4.8 11.3 0.00 0.00 0.00 71 1017.6
20260905191603 27 53 4.8 11.3 0.00 0.00 0.00 70 1017.5
20260905191504 26 45 4.8 11.3 0.00 0.00 0.00 70 1017.6
20260905191403 26 43 4.8 11.3 0.00 0.00 0.00 71 1017.6
20260905191303 26 43 4.8 9.7 0.00 0.00 0.00 71 1017.6
20260905191203 26 41 4.8 9.7 0.00 0.00 0.00 72 1017.6
20260905191103 26 40 4.8 9.7 0.00 0.00 0.00 72 1017.6
20260905191004 26 39 4.8 9.7 0.00 0.00 0.00 71 1017.6
20260905190903 26 41 4.8 9.7 0.00 0.00 0.00 72 1017.5
20260905190803 26 52 4.8 9.7 0.00 0.00 0.00 71 1017.6
20260905190718 26 52 4.8 9.7 0.00 0.00 0.00 71 1017.6
20260905190605 26 57 4.8 12.9 0.00 0.00 0.00 71 1017.6
20260905190503 26 82 6.4 12.9 0.00 0.00 0.00 72 1017.6
20260905190405 26 104 4.8 12.9 0.00 0.00 0.00 72 1017.6
20260905190304 26 113 4.8 12.9 0.00 0.00 0.00 72 1017.6
20260905190203 26 116 4.8 12.9 0.00 0.00 0.00 72 1017.7
20260905190104 26 118 4.8 12.9 0.00 0.00 0.00 72 1017.6
20260905190018 26 118 4.8 12.9 0.00 0.00 0.00 72 1017.6
20260905185904 26 122 4.8 12.9 0.00 0.00 0.00 72 1017.6
20260905185803 26 121 4.8 12.9 0.00 0.00 0.00 72 1017.6
20260905185717 26 120 4.8 12.9 0.00 0.00 0.00 72 1017.6
20260905185603 26 113 4.8 12.9 0.00 0.00 0.00 72 1017.5
20260905185503 26 103 3.2 12.9 0.00 0.00 0.00 73 1017.5
20260905185403 26 84 4.8 11.3 0.00 0.00 0.00 73 1017.5
20260905185305 26 75 4.8 11.3 0.00 0.00 0.00 73 1017.5
20260905185203 26 78 4.8 11.3 0.00 0.00 0.00 73 1017.4
20260905185103 26 66 6.4 11.3 0.00 0.00 0.00 73 1017.5
20260905185018 26 56 6.4 11.3 0.00 0.00 0.00 73 1017.5
20260905184903 26 48 6.4 11.3 0.00 0.00 0.00 73 1017.5
20260905184803 26 39 6.4 11.3 0.00 0.00 0.00 73 1017.5
20260905184703 26 45 6.4 11.3 0.00 0.00 0.00 74 1017.5
20260905184603 26 52 6.4 11.3 0.00 0.00 0.00 74 1017.5
20260905184503 26 57 6.4 11.3 0.00 0.00 0.00 74 1017.5
20260905184418 26 64 6.4 11.3 0.00 0.00 0.00 74 1017.5
20260905184303 26 69 4.8 11.3 0.00 0.00 0.00 73 1017.5
20260905184204 26 69 4.8 11.3 0.00 0.00 0.00 73 1017.4
20260905184103 26 82 4.8 8.0 0.00 0.00 0.00 74 1017.5
20260905184003 26 89 3.2 8.0 0.00 0.00 0.00 74 1017.4
20260905183903 26 102 4.8 8.0 0.00 0.00 0.00 74 1017.4
20260905183803 26 94 4.8 8.0 0.00 0.00 0.00 74 1017.5
20260905183703 26 72 3.2 8.0 0.00 0.00 0.00 74 1017.5
20260905183603 26 59 3.2 8.0 0.00 0.00 0.00 74 1017.4
20260905183505 26 60 4.8 8.0 0.00 0.00 0.00 74 1017.5
20260905183405 26 55 4.8 9.7 0.00 0.00 0.00 74 1017.5
20260905183304 26 59 4.8 9.7 0.00 0.00 0.00 74 1017.5
20260905183204 26 64 4.8 9.7 0.00 0.00 0.00 74 1017.5
20260905183104 26 68 4.8 9.7 0.00 0.00 0.00 74 1017.5
20260905183006 26 69 4.8 9.7 0.00 0.00 0.00 74 1017.5
20260905182903 26 68 4.8 9.7 0.00 0.00 0.00 74 1017.5
20260905182803 26 82 3.2 9.7 0.00 0.00 0.00 74 1017.5
20260905182705 26 102 3.2 9.7 0.00 0.00 0.00 74 1017.5
20260905182603 26 129 4.8 9.7 0.00 0.00 0.00 74 1017.5
20260905182504 26 140 4.8 9.7 0.00 0.00 0.00 75 1017.5
20260905182417 26 146 4.8 9.7 0.00 0.00 0.00 75 1017.5
20260905182305 26 157 3.2 8.0 0.00 0.00 0.00 76 1017.5
20260905182203 26 172 3.2 8.0 0.00 0.00 0.00 75 1017.6
20260905182117 26 177 3.2 8.0 0.00 0.00 0.00 75 1017.7
20260905182003 25 180 4.8 11.3 0.00 0.00 0.00 76 1017.6
20260905181903 25 183 4.8 11.3 0.00 0.00 0.00 75 1017.7
20260905181803 25 180 4.8 11.3 0.00 0.00 0.00 75 1017.7
20260905181703 25 178 4.8 11.3 0.00 0.00 0.00 76 1017.6
20260905181603 25 172 4.8 11.3 0.00 0.00 0.00 76 1017.7
20260905181503 25 172 4.8 11.3 0.00 0.00 0.00 76 1017.7
20260905181403 25 175 4.8 11.3 0.00 0.00 0.00 76 1017.7
20260905181303 25 173 4.8 11.3 0.00 0.00 0.00 76 1017.7
20260905181203 25 171 4.8 11.3 0.00 0.00 0.00 76 1017.7
20260905181118 25 165 4.8 11.3 0.00 0.00 0.00 77 1017.7
20260905181004 25 156 3.2 11.3 0.00 0.00 0.00 78 1017.8
20260905180903 25 142 3.2 9.7 0.00 0.00 0.00 77 1017.8
20260905180803 25 140 3.2 9.7 0.00 0.00 0.00 77 1017.9
20260905180717 25 133 3.2 9.7 0.00 0.00 0.00 77 1017.9
20260905180603 25 129 3.2 9.7 0.00 0.00 0.00 78 1017.9
20260905180517 25 119 3.2 9.7 0.00 0.00 0.00 78 1017.9
20260905180404 25 110 4.8 9.7 0.00 0.00 0.00 79 1017.9
20260905180303 25 77 3.2 9.7 0.00 0.00 0.00 79 1017.9
20260905180203 25 63 3.2 6.4 0.00 0.00 0.00 80 1018.0
20260905180103 24 59 3.2 6.4 0.00 0.00 0.00 80 1018.0
20260905180004 24 58 3.2 6.4 0.00 0.00 0.00 79 1018.0
20260905175903 24 59 3.2 6.4 0.00 0.00 0.00 79 1018.0
20260905175803 24 66 4.8 8.0 0.00 0.00 0.00 79 1018.0
20260905175703 24 79 4.8 8.0 0.00 0.00 0.00 79 1018.0
20260905175617 24 93 6.4 14.5 0.00 0.00 0.00 79 1018.0
20260905175503 24 107 6.4 14.5 0.00 0.00 0.00 79 1018.0
20260905175417 24 122 8.0 14.5 0.00 0.00 0.00 79 1018.0
20260905175306 24 132 8.0 14.5 0.00 0.00 0.00 79 1017.9
20260905175203 24 141 8.0 14.5 0.00 0.00 0.00 80 1018.0
20260905175117 24 139 8.0 14.5 0.00 0.00 0.00 80 1017.9
20260905175003 24 142 8.0 14.5 0.00 0.00 0.00 80 1017.9
20260905174903 24 141 8.0 14.5 0.00 0.00 0.00 80 1017.9
20260905174803 24 140 8.0 14.5 0.00 0.00 0.00 80 1017.9
20260905174717 24 144 8.0 14.5 0.00 0.00 0.00 80 1017.9
20260905174603 24 144 6.4 14.5 0.00 0.00 0.00 80 1018.0
20260905174505 24 142 6.4 14.5 0.00 0.00 0.00 80 1018.0
20260905174418 24 140 4.8 9.7 0.00 0.00 0.00 80 1018.0
20260905174303 24 137 4.8 9.7 0.00 0.00 0.00 80 1018.0
20260905174205 24 129 3.2 9.7 0.00 0.00 0.00 81 1018.0